Air Quality Table

TIMESTAMP NO2 SO2 PM10 PM2.5 CO TEMP HUM AIRPRES WS WD NO
2022-01-24 18:00 11.18 µg/m3 0.24 µg/m3 9.46 µg/m3 3.66 µg/m3 0.3 mg/m3 11.34 °C 77.32 % 1,022.11 mbar 1.1 m/s 278.39 Deg 1.84 µg/m3
2022-01-24 17:00 11.06 µg/m3 0.35 µg/m3 9.17 µg/m3 3.41 µg/m3 0.34 mg/m3 11.98 °C 69.3 % 1,021.70 mbar 1.67 m/s 254.98 Deg 2.27 µg/m3
2022-01-24 16:00 4.92 µg/m3 0.21 µg/m3 8.92 µg/m3 3.09 µg/m3 0.27 mg/m3 12.2 °C 65.95 % 1,021.67 mbar 2.55 m/s 262.88 Deg 1.13 µg/m3
2022-01-24 15:00 8.01 µg/m3 0.25 µg/m3 9.05 µg/m3 3.06 µg/m3 0.25 mg/m3 12.51 °C 62.04 % 1,021.52 mbar 2.46 m/s 309.87 Deg 2.23 µg/m3
2022-01-24 14:00 2.9 µg/m3 0.2 µg/m3 9.46 µg/m3 3.17 µg/m3 0.27 mg/m3 12.63 °C 65.67 % 1,021.74 mbar 2.07 m/s 262.19 Deg 1.06 µg/m3
2022-01-24 13:00 3.93 µg/m3 0.29 µg/m3 9.2 µg/m3 3.05 µg/m3 0.26 mg/m3 13.15 °C 58.29 % 1,022.40 mbar 2.33 m/s 336.63 Deg 1.35 µg/m3
2022-01-24 12:00 6.49 µg/m3 0.28 µg/m3 9.69 µg/m3 3.16 µg/m3 0.25 mg/m3 12.98 °C 58.2 % 1,023.07 mbar 2.23 m/s 336.31 Deg 1.51 µg/m3
2022-01-24 11:00 4.53 µg/m3 0.32 µg/m3 9.8 µg/m3 3.2 µg/m3 0.24 mg/m3 12.74 °C 59.87 % 1,023.45 mbar 2.07 m/s 82 Deg 1.01 µg/m3
2022-01-24 10:00 22.35 µg/m3 0.51 µg/m3 10.85 µg/m3 3.49 µg/m3 0.25 mg/m3 12.25 °C 57.03 % 1,023.33 mbar 2.04 m/s 292.53 Deg 8.01 µg/m3
2022-01-24 09:00 42.11 µg/m3 0.7 µg/m3 10.76 µg/m3 3.71 µg/m3 0.24 mg/m3 11.88 °C 54.92 % 1,023.07 mbar 1.75 m/s 287.49 Deg 13.8 µg/m3
2022-01-24 08:00 33.43 µg/m3 0.69 µg/m3 9.98 µg/m3 3.45 µg/m3 0.26 mg/m3 11.41 °C 56.29 % 1,022.92 mbar 1.4 m/s 297.08 Deg 10.26 µg/m3
2022-01-24 07:00 38.87 µg/m3 0.91 µg/m3 10.47 µg/m3 3.92 µg/m3 0.39 mg/m3 11.13 °C 62.02 % 1,022.76 mbar 1.26 m/s 318.98 Deg 13.55 µg/m3
2022-01-24 06:00 19.73 µg/m3 0.9 µg/m3 9.32 µg/m3 3.3 µg/m3 0.2 mg/m3 11.5 °C 52.88 % 1,022.70 mbar 1.01 m/s 280.27 Deg 6.56 µg/m3
2022-01-24 05:00 12.13 µg/m3 0.84 µg/m3 9.04 µg/m3 3.23 µg/m3 0.14 mg/m3 11.67 °C 53.21 % 1,022.93 mbar 0.91 m/s 249.73 Deg 2.86 µg/m3
2022-01-24 04:00 19.7 µg/m3 0.79 µg/m3 8.71 µg/m3 3.15 µg/m3 0.2 mg/m3 11.57 °C 55.69 % 1,023.20 mbar 1.15 m/s 178.46 Deg 0.91 µg/m3
2022-01-24 03:00 14.31 µg/m3 0.76 µg/m3 8.7 µg/m3 3.06 µg/m3 0.19 mg/m3 11.57 °C 54.04 % 1,023.54 mbar 1.04 m/s 289.67 Deg 0.6 µg/m3
2022-01-24 02:00 23.78 µg/m3 0.48 µg/m3 8.82 µg/m3 3.16 µg/m3 0.21 mg/m3 11.56 °C 60.87 % 1,023.72 mbar 0.96 m/s 296.87 Deg 1.23 µg/m3
2022-01-24 01:00 18.98 µg/m3 0.36 µg/m3 8.89 µg/m3 3.26 µg/m3 0.23 mg/m3 11.64 °C 64.06 % 1,023.83 mbar 0.82 m/s 267.07 Deg 0.5 µg/m3
2022-01-24 00:00 20.37 µg/m3 0.34 µg/m3 9.18 µg/m3 3.43 µg/m3 0.25 mg/m3 11.94 °C 62.97 % 1,023.98 mbar 0.96 m/s 241.79 Deg 0.4 µg/m3
2022-01-23 23:00 42.5 µg/m3 0.27 µg/m3 12.13 µg/m3 5.52 µg/m3 0.35 mg/m3 11.65 °C 62.88 % 1,023.86 mbar 1.83 m/s 204.06 Deg 1.64 µg/m3
2022-01-23 22:00 39.03 µg/m3 0.26 µg/m3 11.83 µg/m3 5.44 µg/m3 0.35 mg/m3 11.6 °C 62.79 % 1,023.98 mbar 2.48 m/s 200.18 Deg 1.61 µg/m3
2022-01-23 21:00 33.3 µg/m3 0.22 µg/m3 12.01 µg/m3 5.34 µg/m3 0.35 mg/m3 11.71 °C 61.94 % 1,024.08 mbar 2.44 m/s 198.01 Deg 0.49 µg/m3
2022-01-23 20:00 34.48 µg/m3 0.3 µg/m3 11.86 µg/m3 5.07 µg/m3 0.35 mg/m3 11.86 °C 58.27 % 1,024.16 mbar 2.72 m/s 206.92 Deg 6.38 µg/m3
2022-01-23 19:00 22.33 µg/m3 0.23 µg/m3 9.82 µg/m3 3.78 µg/m3 0.31 mg/m3 12.22 °C 55.91 % 1,024.18 mbar 2.52 m/s 233.73 Deg 2.22 µg/m3
2022-01-23 18:00 10.41 µg/m3 0.22 µg/m3 9.35 µg/m3 3.3 µg/m3 0.3 mg/m3 12.65 °C 55.27 % 1,023.88 mbar 2 m/s 302.18 Deg 1.5 µg/m3
2022-01-23 17:00 5.72 µg/m3 0.21 µg/m3 9.04 µg/m3 3.14 µg/m3 0.25 mg/m3 12.84 °C 56.42 % 1,023.95 mbar 1.88 m/s 312.64 Deg 0.51 µg/m3
2022-01-23 16:00 3.92 µg/m3 0.23 µg/m3 8.26 µg/m3 2.77 µg/m3 0.24 mg/m3 12.94 °C 54.86 % 1,024.13 mbar 2.45 m/s 295.5 Deg 0.93 µg/m3
2022-01-23 15:00 3.45 µg/m3 0.26 µg/m3 8.35 µg/m3 2.76 µg/m3 0.24 mg/m3 12.9 °C 53.73 % 1,024.31 mbar 2.62 m/s 307.98 Deg 1.14 µg/m3
2022-01-23 14:00 2.83 µg/m3 0.32 µg/m3 8.08 µg/m3 2.59 µg/m3 0.21 mg/m3 13.1 °C 44.97 % 1,024.80 mbar 1.91 m/s 296.38 Deg 0.9 µg/m3
2022-01-23 13:00 5.71 µg/m3 0.6 µg/m3 8.11 µg/m3 2.53 µg/m3 0.21 mg/m3 13.21 °C 41.8 % 1,025.54 mbar 1.45 m/s 334.88 Deg 1.73 µg/m3
2022-01-23 12:00 8.28 µg/m3 0.98 µg/m3 8.84 µg/m3 2.9 µg/m3 0.21 mg/m3 12.98 °C 47.88 % 1,026.11 mbar 1.09 m/s 131.53 Deg 2.68 µg/m3
2022-01-23 11:00 6.07 µg/m3 1.07 µg/m3 8.72 µg/m3 2.87 µg/m3 0.25 mg/m3 12.24 °C 55.96 % 1,026.05 mbar 1.01 m/s 174.1 Deg 1.34 µg/m3
2022-01-23 10:00 9.28 µg/m3 1.04 µg/m3 8.59 µg/m3 2.94 µg/m3 0.25 mg/m3 11.89 °C 60.36 % 1,025.50 mbar 1.61 m/s 195.81 Deg 2.06 µg/m3
2022-01-23 09:00 8.55 µg/m3 0.59 µg/m3 8.37 µg/m3 2.84 µg/m3 0.21 mg/m3 11.82 °C 55.87 % 1,024.96 mbar 1.39 m/s 257.73 Deg 2.59 µg/m3
2022-01-23 08:00 14.97 µg/m3 0.5 µg/m3 8.44 µg/m3 2.85 µg/m3 0.19 mg/m3 11.59 °C 61.75 % 1,024.38 mbar 1.33 m/s 279.31 Deg 3.56 µg/m3
2022-01-23 07:00 9.75 µg/m3 0.49 µg/m3 8.09 µg/m3 2.65 µg/m3 0.16 mg/m3 11.43 °C 60.74 % 1,023.84 mbar 1.37 m/s 230.33 Deg 1.19 µg/m3
2022-01-23 06:00 10 µg/m3 0.48 µg/m3 8.17 µg/m3 2.72 µg/m3 0.17 mg/m3 11.57 °C 60.17 % 1,023.30 mbar 1.56 m/s 311.24 Deg 0.46 µg/m3
2022-01-23 05:00 12.29 µg/m3 0.41 µg/m3 8.47 µg/m3 2.95 µg/m3 0.13 mg/m3 11.65 °C 63.59 % 1,023.16 mbar 1.25 m/s 279.99 Deg 0.79 µg/m3
2022-01-23 04:00 28.18 µg/m3 0.41 µg/m3 9.09 µg/m3 3.36 µg/m3 0.2 mg/m3 11.37 °C 72.4 % 1,023.31 mbar 0.78 m/s 221.56 Deg 2.85 µg/m3
2022-01-23 03:00 38.34 µg/m3 0.36 µg/m3 8.96 µg/m3 3.37 µg/m3 0.21 mg/m3 10.85 °C 76.16 % 1,023.60 mbar 0.86 m/s 218.7 Deg 3.99 µg/m3
2022-01-23 02:00 6.7 µg/m3 0.26 µg/m3 8.73 µg/m3 3.23 µg/m3 0.22 mg/m3 10.11 °C 87.35 % 1,023.57 mbar 1.7 m/s 274.18 Deg 0.22 µg/m3
2022-01-23 01:00 23.83 µg/m3 0.49 µg/m3 13.48 µg/m3 6.68 µg/m3 0.36 mg/m3 10.09 °C 90.99 % 1,022.95 mbar 3.36 m/s 298.11 Deg 13.65 µg/m3
2022-01-23 00:00 53.57 µg/m3 0.93 µg/m3 25.21 µg/m3 14.99 µg/m3 0.68 mg/m3 9.64 °C 91.24 % 1,022.87 mbar 1.44 m/s 195.52 Deg 48.82 µg/m3
2022-01-22 23:00 52.4 µg/m3 0.88 µg/m3 24.74 µg/m3 14.69 µg/m3 0.74 mg/m3 9.52 °C 91.42 % 1,022.52 mbar 2.21 m/s 207.76 Deg 46.89 µg/m3
2022-01-22 22:00 60.09 µg/m3 0.83 µg/m3 26.27 µg/m3 15.14 µg/m3 0.74 mg/m3 10.32 °C 89.46 % 1,022.37 mbar 1.43 m/s 199.98 Deg 42.73 µg/m3
2022-01-22 21:00 66.72 µg/m3 0.63 µg/m3 18.98 µg/m3 10.17 µg/m3 0.63 mg/m3 11.17 °C 86.49 % 1,022.08 mbar 1.02 m/s 204.9 Deg 24.04 µg/m3
2022-01-22 20:00 59.63 µg/m3 0.43 µg/m3 12.56 µg/m3 5.85 µg/m3 0.46 mg/m3 11.86 °C 83.21 % 1,021.79 mbar 0.58 m/s 226.48 Deg 14.74 µg/m3
2022-01-22 19:00 34.32 µg/m3 0.45 µg/m3 13.19 µg/m3 6.05 µg/m3 0.36 mg/m3 11.97 °C 82.98 % 1,021.42 mbar 0.4 m/s 285.23 Deg 5.77 µg/m3
2022-01-22 18:00 25.5 µg/m3 0.34 µg/m3 11.59 µg/m3 4.49 µg/m3 0.37 mg/m3 12.8 °C 78.54 % 1,020.98 mbar 0.55 m/s 292.52 Deg 8.97 µg/m3
2022-01-22 17:00 5.85 µg/m3 0.21 µg/m3 9.07 µg/m3 2.9 µg/m3 0.33 mg/m3 13.47 °C 63.38 % 1,020.77 mbar 1.5 m/s 179.23 Deg 1.63 µg/m3
2022-01-22 16:00 13.44 µg/m3 0.28 µg/m3 9.67 µg/m3 3.71 µg/m3 0.3 mg/m3 13.55 °C 64.2 % 1,020.38 mbar 1.87 m/s 340.13 Deg 6.42 µg/m3
2022-01-22 15:00 11.7 µg/m3 0.27 µg/m3 9.43 µg/m3 3.07 µg/m3 0.28 mg/m3 13.77 °C 65.03 % 1,020.11 mbar 1.34 m/s 255.92 Deg 5.79 µg/m3
2022-01-22 14:00 5.4 µg/m3 0.21 µg/m3 8.43 µg/m3 2.65 µg/m3 0.28 mg/m3 13.75 °C 65.97 % 1,020.30 mbar 0.94 m/s 253.38 Deg 2.3 µg/m3
2022-01-22 13:00 7.63 µg/m3 0.22 µg/m3 8.03 µg/m3 2.66 µg/m3 0.3 mg/m3 13.03 °C 72.21 % 1,020.62 mbar 0.82 m/s 182.49 Deg 3.36 µg/m3
2022-01-22 12:00 26.82 µg/m3 0.26 µg/m3 8.33 µg/m3 2.91 µg/m3 0.3 mg/m3 11.73 °C 78.46 % 1,021.16 mbar 1.55 m/s 279 Deg 8.14 µg/m3
2022-01-22 11:00 6.93 µg/m3 0.24 µg/m3 9.11 µg/m3 3.1 µg/m3 0.29 mg/m3 12.83 °C 70.7 % 1,021.10 mbar 2.14 m/s 336.87 Deg 2.08 µg/m3
2022-01-22 10:00 13.3 µg/m3 0.31 µg/m3 9.65 µg/m3 3.43 µg/m3 0.23 mg/m3 13.09 °C 65.72 % 1,020.51 mbar 2.64 m/s 318.99 Deg 6.18 µg/m3
2022-01-22 09:00 18.16 µg/m3 0.24 µg/m3 9.94 µg/m3 3.58 µg/m3 0.23 mg/m3 12.76 °C 65.83 % 1,019.87 mbar 2.21 m/s 305.78 Deg 3.86 µg/m3
2022-01-22 08:00 18.91 µg/m3 0.2 µg/m3 9.71 µg/m3 3.71 µg/m3 0.21 mg/m3 12.42 °C 67.65 % 1,019.53 mbar 2.34 m/s 302 Deg 2.01 µg/m3
2022-01-22 07:00 16.9 µg/m3 0.26 µg/m3 9.66 µg/m3 3.81 µg/m3 0.21 mg/m3 12.1 °C 68.17 % 1,019.25 mbar 2.87 m/s 260.27 Deg 1.76 µg/m3
2022-01-22 06:00 13.2 µg/m3 0.25 µg/m3 9.35 µg/m3 3.72 µg/m3 0.2 mg/m3 11.71 °C 71.65 % 1,018.94 mbar 2.89 m/s 249.53 Deg 3.32 µg/m3
2022-01-22 05:00 8.81 µg/m3 0.14 µg/m3 9.46 µg/m3 3.75 µg/m3 0.14 mg/m3 11.77 °C 69.45 % 1,018.87 mbar 2.92 m/s 242.89 Deg 2.16 µg/m3
2022-01-22 04:00 4.24 µg/m3 0.15 µg/m3 9.6 µg/m3 3.83 µg/m3 0.18 mg/m3 11.79 °C 68.17 % 1,019.12 mbar 2.74 m/s 247.87 Deg 0.45 µg/m3
2022-01-22 03:00 7.85 µg/m3 0.14 µg/m3 9.38 µg/m3 3.8 µg/m3 0.2 mg/m3 11.09 °C 83.18 % 1,019.58 mbar 3.94 m/s 212.43 Deg 0.07 µg/m3
2022-01-22 02:00 6.18 µg/m3 0.23 µg/m3 8.7 µg/m3 3.31 µg/m3 0.21 mg/m3 11.55 °C 78.64 % 1,019.73 mbar 4.33 m/s 227.58 Deg 2.32 µg/m3
2022-01-22 01:00 3.6 µg/m3 0.2 µg/m3 8.33 µg/m3 3.03 µg/m3 0.21 mg/m3 11.83 °C 74.1 % 1,019.74 mbar 3.38 m/s 220.1 Deg -0.06 µg/m3
2022-01-22 00:00 12.33 µg/m3 0.19 µg/m3 8.81 µg/m3 3.37 µg/m3 0.23 mg/m3 11.79 °C 77.69 % 1,020.07 mbar 2.96 m/s 244.56 Deg 1.33 µg/m3
2022-01-21 23:00 20.69 µg/m3 0.27 µg/m3 9.85 µg/m3 4.07 µg/m3 0.27 mg/m3 12.32 °C 73.62 % 1,020.08 mbar 2.41 m/s 225.28 Deg 1.11 µg/m3
2022-01-21 22:00 19.93 µg/m3 0.26 µg/m3 10.01 µg/m3 4.19 µg/m3 0.27 mg/m3 12.4 °C 72.37 % 1,019.73 mbar 2.18 m/s 214.94 Deg 0.64 µg/m3
2022-01-21 21:00 23.21 µg/m3 0.36 µg/m3 9.72 µg/m3 4 µg/m3 0.26 mg/m3 12.51 °C 74.51 % 1,019.70 mbar 2.64 m/s 217.53 Deg 3.59 µg/m3
2022-01-21 20:00 33.22 µg/m3 0.79 µg/m3 10.3 µg/m3 4.1 µg/m3 0.29 mg/m3 12.94 °C 69.52 % 1,019.73 mbar 3.15 m/s 214.68 Deg 11 µg/m3
2022-01-21 19:00 27.01 µg/m3 0.28 µg/m3 10.17 µg/m3 4.12 µg/m3 0.29 mg/m3 12.98 °C 68.14 % 1,019.34 mbar 3.1 m/s 216.43 Deg 5.84 µg/m3
2022-01-21 18:00 24.34 µg/m3 0.26 µg/m3 9.89 µg/m3 3.74 µg/m3 0.27 mg/m3 13.23 °C 62.62 % 1,018.85 mbar 3.48 m/s 233.02 Deg 1.81 µg/m3
2022-01-21 17:00 19.66 µg/m3 0.4 µg/m3 9.77 µg/m3 3.55 µg/m3 0.24 mg/m3 13.77 °C 62.55 % 1,018.66 mbar 4.34 m/s 255.78 Deg 3.75 µg/m3
2022-01-21 16:00 10.39 µg/m3 0.26 µg/m3 9.64 µg/m3 3.39 µg/m3 0.21 mg/m3 14.01 °C 61.75 % 1,018.71 mbar 5.92 m/s 240.46 Deg 1.68 µg/m3
2022-01-21 15:00 8.75 µg/m3 0.28 µg/m3 8.81 µg/m3 3.17 µg/m3 0.21 mg/m3 14.24 °C 60.39 % 1,018.82 mbar 6.27 m/s 233.22 Deg 1.68 µg/m3
2022-01-21 14:00 8.85 µg/m3 0.31 µg/m3 9.13 µg/m3 3.26 µg/m3 0.21 mg/m3 14.27 °C 59.29 % 1,019.09 mbar 6.25 m/s 241.39 Deg 2.19 µg/m3
2022-01-21 13:00 9.33 µg/m3 0.36 µg/m3 9.42 µg/m3 3.41 µg/m3 0.2 mg/m3 14.22 °C 57.89 % 1,019.58 mbar 6.19 m/s 237.82 Deg 2.7 µg/m3
2022-01-21 12:00 11.3 µg/m3 0.48 µg/m3 9.57 µg/m3 3.58 µg/m3 0.21 mg/m3 14.18 °C 60.86 % 1,020.18 mbar 5.35 m/s 220.33 Deg 5.53 µg/m3
2022-01-21 11:00 12.63 µg/m3 0.55 µg/m3 10.03 µg/m3 3.64 µg/m3 0.2 mg/m3 13.94 °C 60.43 % 1,020.47 mbar 4.67 m/s 245.73 Deg 2.73 µg/m3
2022-01-21 10:00 56.43 µg/m3 1.01 µg/m3 19.2 µg/m3 7.1 µg/m3 0.34 mg/m3 13.15 °C 64.92 % 1,020.13 mbar 2.89 m/s 213.33 Deg 38.4 µg/m3
2022-01-21 09:00 109.99 µg/m3 2.42 µg/m3 28.5 µg/m3 14.09 µg/m3 0.66 mg/m3 11.08 °C 75.7 % 1,019.69 mbar 1.87 m/s 188.22 Deg 147.71 µg/m3
2022-01-21 08:00 101.74 µg/m3 2.16 µg/m3 25.7 µg/m3 13.31 µg/m3 0.63 mg/m3 10.38 °C 78.2 % 1,019.68 mbar 2.1 m/s 196.39 Deg 113.37 µg/m3
2022-01-21 07:00 88.86 µg/m3 1.1 µg/m3 19.47 µg/m3 10.43 µg/m3 0.43 mg/m3 10.38 °C 77.43 % 1,019.42 mbar 2.14 m/s 194.82 Deg 32.87 µg/m3
2022-01-21 06:00 76.02 µg/m3 0.61 µg/m3 16.72 µg/m3 8.61 µg/m3 0.27 mg/m3 10.61 °C 77.21 % 1,019.22 mbar 2.17 m/s 192.71 Deg 8.9 µg/m3
2022-01-21 05:00 68.9 µg/m3 0.57 µg/m3 15.65 µg/m3 7.85 µg/m3 0.18 mg/m3 11.01 °C 74.87 % 1,019.36 mbar 1.89 m/s 194.2 Deg 5.37 µg/m3
2022-01-21 04:00 83.74 µg/m3 0.77 µg/m3 14.43 µg/m3 7.08 µg/m3 0.21 mg/m3 11.13 °C 73.94 % 1,019.73 mbar 1.91 m/s 197.73 Deg 29.84 µg/m3
2022-01-21 03:00 54.18 µg/m3 0.9 µg/m3 14.35 µg/m3 7.49 µg/m3 0.2 mg/m3 11.29 °C 73.97 % 1,020.24 mbar 2.05 m/s 192.19 Deg 21.85 µg/m3
2022-01-21 02:00 54.52 µg/m3 0.63 µg/m3 15 µg/m3 8.03 µg/m3 0.21 mg/m3 11.35 °C 75.45 % 1,020.42 mbar 1.97 m/s 193.95 Deg 4.61 µg/m3
2022-01-21 01:00 39.77 µg/m3 0.49 µg/m3 15.35 µg/m3 8.25 µg/m3 0.23 mg/m3 11.62 °C 76.6 % 1,020.84 mbar 2.43 m/s 196.02 Deg 0.65 µg/m3
2022-01-21 00:00 69.51 µg/m3 0.97 µg/m3 30.99 µg/m3 16.06 µg/m3 0.39 mg/m3 11 °C 80.66 % 1,021.31 mbar 1.8 m/s 195.98 Deg 34.45 µg/m3
2022-01-20 23:00 79.98 µg/m3 1.04 µg/m3 33.1 µg/m3 18.88 µg/m3 0.44 mg/m3 11.35 °C 80.43 % 1,021.60 mbar 1.25 m/s 202.52 Deg 38.33 µg/m3
2022-01-20 22:00 72.73 µg/m3 0.63 µg/m3 30.16 µg/m3 17.93 µg/m3 0.4 mg/m3 11.51 °C 75.85 % 1,021.74 mbar 1.56 m/s 199.14 Deg 10.36 µg/m3
2022-01-20 21:00 66.42 µg/m3 0.51 µg/m3 21.67 µg/m3 11.19 µg/m3 0.35 mg/m3 12.11 °C 72.87 % 1,021.68 mbar 1.8 m/s 193.59 Deg 3.99 µg/m3
2022-01-20 20:00 64.21 µg/m3 0.62 µg/m3 18.92 µg/m3 10.03 µg/m3 0.37 mg/m3 12.67 °C 71.84 % 1,021.75 mbar 2.13 m/s 201.68 Deg 10.43 µg/m3
2022-01-20 19:00 75.97 µg/m3 0.62 µg/m3 19.44 µg/m3 9.76 µg/m3 0.39 mg/m3 13.09 °C 71.05 % 1,021.68 mbar 2.28 m/s 198.72 Deg 15.99 µg/m3
2022-01-20 18:00 22.25 µg/m3 0.27 µg/m3 11.81 µg/m3 4.99 µg/m3 0.24 mg/m3 13.65 °C 66.62 % 1,021.61 mbar 3.23 m/s 213.75 Deg 2.43 µg/m3
2022-01-20 17:00 19.43 µg/m3 0.34 µg/m3 10.5 µg/m3 4.09 µg/m3 0.23 mg/m3 13.96 °C 66.02 % 1,021.62 mbar 2.32 m/s 261.88 Deg 4.45 µg/m3
2022-01-20 16:00 18.35 µg/m3 0.4 µg/m3 10.71 µg/m3 4.2 µg/m3 0.21 mg/m3 14.16 °C 63.56 % 1,021.71 mbar 2.54 m/s 259.89 Deg 5.85 µg/m3
2022-01-20 15:00 19.57 µg/m3 0.43 µg/m3 10.79 µg/m3 4.11 µg/m3 0.23 mg/m3 14.37 °C 61.4 % 1,022.10 mbar 2.12 m/s 246.68 Deg 6.78 µg/m3
2022-01-20 14:00 46.98 µg/m3 0.96 µg/m3 10.42 µg/m3 4.05 µg/m3 0.2 mg/m3 14.32 °C 62.01 % 1,022.70 mbar 3.46 m/s 240.97 Deg 45.5 µg/m3
2022-01-20 13:00 33.58 µg/m3 0.71 µg/m3 10.85 µg/m3 4.32 µg/m3 0.22 mg/m3 13.6 °C 71.11 % 1,023.45 mbar 2.78 m/s 251.53 Deg 30.41 µg/m3
2022-01-20 12:00 35.56 µg/m3 0.72 µg/m3 12.25 µg/m3 4.71 µg/m3 0.22 mg/m3 14.21 °C 69.89 % 1,024.40 mbar 2.34 m/s 251.91 Deg 11.62 µg/m3
2022-01-20 11:00 40.62 µg/m3 0.85 µg/m3 11.12 µg/m3 4.53 µg/m3 0.21 mg/m3 14.05 °C 69.18 % 1,024.77 mbar 3.51 m/s 193.69 Deg 20.23 µg/m3
2022-01-20 10:00 99.91 µg/m3 2.66 µg/m3 30.71 µg/m3 15.66 µg/m3 0.68 mg/m3 12.65 °C 82.46 % 1,024.66 mbar 0.89 m/s 189.93 Deg 163.22 µg/m3
2022-01-20 09:00 100.23 µg/m3 2.74 µg/m3 32.33 µg/m3 17.83 µg/m3 0.85 mg/m3 10.58 °C 88.69 % 1,024.60 mbar 1.93 m/s 193.55 Deg 182.48 µg/m3
2022-01-20 08:00 92.43 µg/m3 2.32 µg/m3 25.45 µg/m3 13.69 µg/m3 0.73 mg/m3 10.34 °C 90.07 % 1,024.81 mbar 1.68 m/s 200.72 Deg 153.64 µg/m3
2022-01-20 07:00 69.43 µg/m3 0.88 µg/m3 16.04 µg/m3 7.75 µg/m3 0.41 mg/m3 10.53 °C 89.86 % 1,024.83 mbar 1.33 m/s 191.17 Deg 38.33 µg/m3
2022-01-20 06:00 58.74 µg/m3 0.65 µg/m3 12.32 µg/m3 5.88 µg/m3 0.25 mg/m3 10.68 °C 89.37 % 1,024.71 mbar 1.9 m/s 196.09 Deg 15.87 µg/m3
2022-01-20 05:00 47.46 µg/m3 0.59 µg/m3 12.52 µg/m3 6.15 µg/m3 0.19 mg/m3 11.04 °C 89.77 % 1,024.87 mbar 1.89 m/s 201.7 Deg 12.35 µg/m3
2022-01-20 04:00 53.77 µg/m3 0.59 µg/m3 13.71 µg/m3 7.04 µg/m3 0.32 mg/m3 11.51 °C 90.29 % 1,025.37 mbar 1.42 m/s 208.91 Deg 17.95 µg/m3
2022-01-20 03:00 49.7 µg/m3 0.44 µg/m3 13.64 µg/m3 7.01 µg/m3 0.32 mg/m3 11.37 °C 90.08 % 1,025.85 mbar 1.38 m/s 198.78 Deg 4.05 µg/m3
2022-01-20 02:00 53.27 µg/m3 0.5 µg/m3 15.15 µg/m3 8.13 µg/m3 0.35 mg/m3 11.38 °C 89.9 % 1,026.18 mbar 1.79 m/s 201.98 Deg 14.83 µg/m3
2022-01-20 01:00 44.57 µg/m3 0.46 µg/m3 17.23 µg/m3 9.63 µg/m3 0.36 mg/m3 11.23 °C 89.17 % 1,026.52 mbar 1.74 m/s 199.47 Deg 5.95 µg/m3
2022-01-20 00:00 73.4 µg/m3 0.94 µg/m3 15.27 µg/m3 8.26 µg/m3 0.41 mg/m3 11.43 °C 88.86 % 1,026.88 mbar 1.68 m/s 203.67 Deg 53.81 µg/m3
2022-01-19 23:00 73.72 µg/m3 0.67 µg/m3 14.21 µg/m3 7.44 µg/m3 0.37 mg/m3 11.97 °C 86.43 % 1,027.24 mbar 1.09 m/s 207.33 Deg 23.97 µg/m3
2022-01-19 22:00 64.41 µg/m3 0.6 µg/m3 14 µg/m3 7.28 µg/m3 0.35 mg/m3 12.43 °C 84.62 % 1,027.43 mbar 0.65 m/s 186.81 Deg 15.44 µg/m3
2022-01-19 21:00 67.97 µg/m3 0.6 µg/m3 13.66 µg/m3 7.04 µg/m3 0.32 mg/m3 12.89 °C 83.15 % 1,027.56 mbar 0.69 m/s 196.1 Deg 14.34 µg/m3
2022-01-19 20:00 67.95 µg/m3 0.46 µg/m3 12.49 µg/m3 6.12 µg/m3 0.34 mg/m3 13.2 °C 81.14 % 1,027.50 mbar 0.67 m/s 187.59 Deg 10.95 µg/m3
2022-01-19 19:00 30.15 µg/m3 0.41 µg/m3 11.98 µg/m3 5.76 µg/m3 0.35 mg/m3 12.74 °C 85.46 % 1,027.54 mbar 0.42 m/s 208.69 Deg 5.82 µg/m3
2022-01-19 18:00 37.4 µg/m3 0.41 µg/m3 12.22 µg/m3 5.68 µg/m3 0.37 mg/m3 13.48 °C 82.12 % 1,027.36 mbar 0.62 m/s 249 Deg 7.44 µg/m3
2022-01-19 17:00 11.04 µg/m3 0.44 µg/m3 13.33 µg/m3 5.21 µg/m3 0.31 mg/m3 15.41 °C 63.29 % 1,027.04 mbar 0.57 m/s 230.12 Deg 2.97 µg/m3
2022-01-19 16:00 21.24 µg/m3 0.7 µg/m3 13.48 µg/m3 5.26 µg/m3 0.26 mg/m3 15.69 °C 60.51 % 1,027.13 mbar 0.96 m/s 242.74 Deg 7.22 µg/m3
2022-01-19 15:00 26.28 µg/m3 0.69 µg/m3 13.45 µg/m3 4.97 µg/m3 0.28 mg/m3 16.2 °C 57.66 % 1,027.40 mbar 0.9 m/s 225.53 Deg 7.73 µg/m3
2022-01-19 14:00 49.94 µg/m3 1.19 µg/m3 12.97 µg/m3 5.34 µg/m3 0.25 mg/m3 15.68 °C 52.06 % 1,027.78 mbar 1.66 m/s 185.34 Deg 24.35 µg/m3
2022-01-19 13:00 70.35 µg/m3 1.55 µg/m3 14.73 µg/m3 6.43 µg/m3 0.25 mg/m3 15.37 °C 53.24 % 1,028.65 mbar 1.59 m/s 185.33 Deg 49.23 µg/m3
2022-01-19 12:00 27.27 µg/m3 0.99 µg/m3 12.83 µg/m3 4.76 µg/m3 0.26 mg/m3 15.04 °C 57.74 % 1,029.18 mbar 0.67 m/s 202.98 Deg 8.23 µg/m3
2022-01-19 11:00 24.25 µg/m3 0.96 µg/m3 13.99 µg/m3 5.33 µg/m3 0.31 mg/m3 14.4 °C 64.44 % 1,029.46 mbar 0.4 m/s 260.13 Deg 5.78 µg/m3
2022-01-19 10:00 72.13 µg/m3 1.99 µg/m3 23.9 µg/m3 11.38 µg/m3 0.75 mg/m3 13.32 °C 75.15 % 1,029.42 mbar 0 m/s 209.95 Deg 67.54 µg/m3
2022-01-19 09:00 121.78 µg/m3 4.15 µg/m3 37.67 µg/m3 19.11 µg/m3 1.09 mg/m3 12.03 °C 81.96 % 1,028.93 mbar 0.99 m/s 204.3 Deg 270.57 µg/m3
2022-01-19 08:00 81.63 µg/m3 1.85 µg/m3 21.27 µg/m3 11.12 µg/m3 0.57 mg/m3 12.26 °C 78.86 % 1,028.63 mbar 0.63 m/s 228.62 Deg 80.98 µg/m3
2022-01-19 07:00 71.56 µg/m3 1.5 µg/m3 17.79 µg/m3 9.87 µg/m3 0.59 mg/m3 12 °C 78.77 % 1,028.18 mbar 0.36 m/s 236.93 Deg 40.05 µg/m3
2022-01-19 06:00 71.71 µg/m3 1.26 µg/m3 19.02 µg/m3 10.58 µg/m3 0.34 mg/m3 11.67 °C 77.77 % 1,027.95 mbar 0.99 m/s 205.4 Deg 38.03 µg/m3
2022-01-19 05:00 61.26 µg/m3 0.9 µg/m3 16.91 µg/m3 9.31 µg/m3 0.22 mg/m3 11.36 °C 79.02 % 1,027.91 mbar 1.72 m/s 199.47 Deg 30.12 µg/m3
2022-01-19 04:00 51.2 µg/m3 0.64 µg/m3 15.99 µg/m3 8.71 µg/m3 0.29 mg/m3 11.17 °C 78.64 % 1,028.13 mbar 1.98 m/s 201.01 Deg 16.07 µg/m3
2022-01-19 03:00 50.81 µg/m3 0.61 µg/m3 15.41 µg/m3 8.29 µg/m3 0.31 mg/m3 11.07 °C 78.96 % 1,028.27 mbar 2.29 m/s 200.89 Deg 11.69 µg/m3
2022-01-19 02:00 48.93 µg/m3 0.5 µg/m3 16.47 µg/m3 8.98 µg/m3 0.32 mg/m3 11.09 °C 79.33 % 1,028.42 mbar 2.17 m/s 202.26 Deg 4.35 µg/m3
2022-01-19 01:00 58.01 µg/m3 0.6 µg/m3 19.4 µg/m3 11.24 µg/m3 0.39 mg/m3 10.84 °C 79.23 % 1,028.62 mbar 2.23 m/s 199.29 Deg 11.38 µg/m3
2022-01-19 00:00 63.12 µg/m3 0.67 µg/m3 22.41 µg/m3 13.43 µg/m3 0.45 mg/m3 10.7 °C 79.33 % 1,028.81 mbar 2.21 m/s 202.71 Deg 13.31 µg/m3
2022-01-18 23:00 71.08 µg/m3 0.79 µg/m3 28.77 µg/m3 18.18 µg/m3 0.52 mg/m3 10.52 °C 80.49 % 1,029.17 mbar 2.03 m/s 199.69 Deg 28.85 µg/m3
2022-01-18 22:00 71.06 µg/m3 0.67 µg/m3 27.99 µg/m3 16.02 µg/m3 0.56 mg/m3 10.64 °C 80.38 % 1,028.98 mbar 2.16 m/s 202.12 Deg 26.59 µg/m3
2022-01-18 21:00 77.76 µg/m3 0.88 µg/m3 27.49 µg/m3 15.63 µg/m3 0.68 mg/m3 11.25 °C 78.3 % 1,028.95 mbar 2.11 m/s 197.23 Deg 41.85 µg/m3
2022-01-18 20:00 87.53 µg/m3 1.07 µg/m3 27.83 µg/m3 14.56 µg/m3 0.74 mg/m3 12.17 °C 75.88 % 1,028.67 mbar 1.63 m/s 201.25 Deg 53.52 µg/m3
2022-01-18 19:00 40.68 µg/m3 0.31 µg/m3 12.33 µg/m3 5.44 µg/m3 0.34 mg/m3 13.41 °C 67.86 % 1,028.19 mbar 0.85 m/s 315.49 Deg 5.35 µg/m3
2022-01-18 18:00 17.24 µg/m3 0.16 µg/m3 11.13 µg/m3 4.56 µg/m3 0.31 mg/m3 13.63 °C 65.25 % 1,027.59 mbar 1.05 m/s 319.26 Deg 2.13 µg/m3
2022-01-18 17:00 9.5 µg/m3 0.2 µg/m3 11.23 µg/m3 4.58 µg/m3 0.27 mg/m3 14.2 °C 62.54 % 1,027.14 mbar 1.62 m/s 260.24 Deg 2.2 µg/m3
2022-01-18 16:00 8.96 µg/m3 0.22 µg/m3 11.01 µg/m3 4.42 µg/m3 0.26 mg/m3 14.63 °C 58.85 % 1,026.97 mbar 1.76 m/s 336.16 Deg 2.14 µg/m3
2022-01-18 15:00 8.19 µg/m3 0.23 µg/m3 11.16 µg/m3 4.45 µg/m3 0.36 mg/m3 14.71 °C 59.42 % 1,026.80 mbar 1.68 m/s 324.12 Deg 2.48 µg/m3
2022-01-18 14:00 4.44 µg/m3 0.21 µg/m3 11.03 µg/m3 4.53 µg/m3 0.24 mg/m3 14.58 °C 59.72 % 1,026.86 mbar 1.78 m/s 338.34 Deg 1.44 µg/m3
2022-01-18 13:00 5.09 µg/m3 0.19 µg/m3 11.09 µg/m3 4.45 µg/m3 0.26 mg/m3 14.46 °C 61.64 % 1,027.26 mbar 2.15 m/s 339.84 Deg 1.81 µg/m3
2022-01-18 12:00 10.65 µg/m3 0.23 µg/m3 11.48 µg/m3 4.72 µg/m3 0.24 mg/m3 14.56 °C 62.79 % 1,027.66 mbar 1.7 m/s 320.9 Deg 3.39 µg/m3
2022-01-18 11:00 10.54 µg/m3 0.31 µg/m3 11.41 µg/m3 4.6 µg/m3 0.25 mg/m3 14.07 °C 65.92 % 1,027.63 mbar 1.88 m/s 310.27 Deg 13.46 µg/m3
2022-01-18 10:00 19.93 µg/m3 0.17 µg/m3 11.7 µg/m3 4.8 µg/m3 0.26 mg/m3 13.55 °C 68.84 % 1,026.92 mbar 1.74 m/s 290.79 Deg 1.91 µg/m3
2022-01-18 09:00 44.57 µg/m3 0.24 µg/m3 14.02 µg/m3 5.72 µg/m3 0.34 mg/m3 12.99 °C 72.52 % 1,026.26 mbar 1.6 m/s 258.96 Deg 5.1 µg/m3
2022-01-18 08:00 24.92 µg/m3 0.2 µg/m3 11.45 µg/m3 4.72 µg/m3 0.27 mg/m3 13.13 °C 71.17 % 1,025.69 mbar 1.79 m/s 285.8 Deg 2.83 µg/m3
2022-01-18 07:00 10.19 µg/m3 0.15 µg/m3 10.38 µg/m3 4.35 µg/m3 0.28 mg/m3 13.18 °C 71.32 % 1,025.18 mbar 1.96 m/s 313.41 Deg 2.75 µg/m3
2022-01-18 06:00 3.99 µg/m3 0.11 µg/m3 9.58 µg/m3 3.81 µg/m3 0.24 mg/m3 12.95 °C 71.67 % 1,024.59 mbar 2.02 m/s 317.57 Deg 0.89 µg/m3
2022-01-18 05:00 3.41 µg/m3 0.09 µg/m3 9.93 µg/m3 4.14 µg/m3 0.17 mg/m3 12.11 °C 75.35 % 1,024.29 mbar 1.8 m/s 261.42 Deg -0.13 µg/m3
2022-01-18 04:00 1.91 µg/m3 0.13 µg/m3 9.86 µg/m3 4.09 µg/m3 0.23 mg/m3 12.32 °C 74.31 % 1,024.38 mbar 2.1 m/s 250.09 Deg -0.19 µg/m3
2022-01-18 03:00 10.4 µg/m3 0.15 µg/m3 10.27 µg/m3 4.39 µg/m3 0.25 mg/m3 12.34 °C 77 % 1,024.34 mbar 2.21 m/s 225.58 Deg 0.61 µg/m3
2022-01-18 02:00 2.59 µg/m3 0.12 µg/m3 10.57 µg/m3 4.53 µg/m3 0.25 mg/m3 12.82 °C 75.49 % 1,024.32 mbar 1.9 m/s 260.73 Deg 0.06 µg/m3
2022-01-18 01:00 0.91 µg/m3 0.15 µg/m3 10.14 µg/m3 4.29 µg/m3 0.24 mg/m3 12.96 °C 77.16 % 1,024.23 mbar 2.52 m/s 253.23 Deg 0.02 µg/m3
2022-01-18 00:00 5.12 µg/m3 0.15 µg/m3 10.16 µg/m3 4.32 µg/m3 0.26 mg/m3 13.11 °C 79.64 % 1,024.21 mbar 2.5 m/s 251.46 Deg 0.08 µg/m3
2022-01-17 23:00 12.11 µg/m3 0.17 µg/m3 10.21 µg/m3 4.31 µg/m3 0.26 mg/m3 13.09 °C 77.48 % 1,024.21 mbar 2.09 m/s 233.61 Deg 1.4 µg/m3
2022-01-17 22:00 4.42 µg/m3 0.15 µg/m3 9.98 µg/m3 4.12 µg/m3 0.25 mg/m3 13.11 °C 75.11 % 1,024.18 mbar 2.97 m/s 260.54 Deg 0.23 µg/m3
2022-01-17 21:00 5.08 µg/m3 0.15 µg/m3 10.12 µg/m3 4.17 µg/m3 0.25 mg/m3 13.42 °C 75.05 % 1,024.12 mbar 2.96 m/s 264.78 Deg 0.05 µg/m3
2022-01-17 20:00 8.65 µg/m3 0.17 µg/m3 10.26 µg/m3 4.26 µg/m3 0.26 mg/m3 13.36 °C 72.69 % 1,023.66 mbar 3.15 m/s 264.52 Deg 0.12 µg/m3
2022-01-17 19:00 13.37 µg/m3 0.21 µg/m3 11.29 µg/m3 4.92 µg/m3 0.28 mg/m3 13.4 °C 72.48 % 1,023.47 mbar 2.87 m/s 261.12 Deg 0.84 µg/m3
2022-01-17 18:00 14.98 µg/m3 0.23 µg/m3 10.95 µg/m3 4.58 µg/m3 0.27 mg/m3 13.6 °C 70.09 % 1,023.22 mbar 3.74 m/s 268.23 Deg 2.36 µg/m3
2022-01-17 17:00 13.8 µg/m3 0.26 µg/m3 11.18 µg/m3 4.67 µg/m3 0.26 mg/m3 13.96 °C 67.82 % 1,022.96 mbar 4.17 m/s 262.25 Deg 1.35 µg/m3
2022-01-17 16:00 9.55 µg/m3 0.21 µg/m3 10.45 µg/m3 4.16 µg/m3 0.25 mg/m3 14.41 °C 67.22 % 1,022.90 mbar 5.67 m/s 262.01 Deg 1.22 µg/m3
2022-01-17 15:00 8.58 µg/m3 0.2 µg/m3 10.49 µg/m3 4.14 µg/m3 0.26 mg/m3 14.6 °C 68.25 % 1,022.80 mbar 4.93 m/s 272.53 Deg 1.8 µg/m3
2022-01-17 14:00 8.57 µg/m3 0.18 µg/m3 10.07 µg/m3 3.8 µg/m3 0.26 mg/m3 14.68 °C 67.44 % 1,023.29 mbar 5.08 m/s 266.43 Deg 1.87 µg/m3
2022-01-17 13:00 8.6 µg/m3 0.25 µg/m3 9.79 µg/m3 3.66 µg/m3 0.24 mg/m3 14.52 °C 67.49 % 1,024.02 mbar 4.83 m/s 265.77 Deg 1.85 µg/m3
2022-01-17 12:00 13.24 µg/m3 0.35 µg/m3 10.23 µg/m3 3.71 µg/m3 0.23 mg/m3 14.31 °C 67.94 % 1,024.50 mbar 4.41 m/s 264.13 Deg 4.79 µg/m3
2022-01-17 11:00 15.74 µg/m3 0.29 µg/m3 10.46 µg/m3 4.08 µg/m3 0.25 mg/m3 13.85 °C 72.11 % 1,025.43 mbar 3.42 m/s 268.71 Deg 3.8 µg/m3
2022-01-17 10:00 38.57 µg/m3 0.43 µg/m3 13.63 µg/m3 5.9 µg/m3 0.35 mg/m3 13.32 °C 77.29 % 1,025.11 mbar 1.82 m/s 261.32 Deg 8.93 µg/m3
2022-01-17 09:00 85.11 µg/m3 0.98 µg/m3 17.49 µg/m3 8.38 µg/m3 0.58 mg/m3 12.14 °C 81.98 % 1,024.83 mbar 2.06 m/s 199.08 Deg 58.63 µg/m3
2022-01-17 08:00 82.23 µg/m3 0.66 µg/m3 12.95 µg/m3 6.11 µg/m3 0.5 mg/m3 11.78 °C 83.3 % 1,024.76 mbar 2.63 m/s 200.28 Deg 33.93 µg/m3
2022-01-17 07:00 66.18 µg/m3 0.57 µg/m3 11.95 µg/m3 5.65 µg/m3 0.36 mg/m3 11.91 °C 83.28 % 1,024.55 mbar 2.64 m/s 206.44 Deg 22.36 µg/m3
2022-01-17 06:00 50.58 µg/m3 0 µg/m3 15.62 µg/m3 8.52 µg/m3 0 mg/m3 11.4 °C 87.55 % 1,024.31 mbar 1.74 m/s 198.19 Deg 16.35 µg/m3
2022-01-17 05:00 56.77 µg/m3 0 µg/m3 21.29 µg/m3 12.9 µg/m3 0 mg/m3 10.53 °C 92.3 % 1,024.06 mbar 2.02 m/s 195.12 Deg 31.18 µg/m3
2022-01-17 04:00 51.26 µg/m3 0 µg/m3 14.06 µg/m3 7.36 µg/m3 0 mg/m3 10.95 °C 90.64 % 1,024.19 mbar 1.82 m/s 193.54 Deg 18.48 µg/m3
2022-01-17 03:00 56.18 µg/m3 0 µg/m3 12.78 µg/m3 6.31 µg/m3 0.34 mg/m3 11.23 °C 89.99 % 1,024.47 mbar 1.67 m/s 193.2 Deg 15.51 µg/m3
2022-01-17 02:00 50.57 µg/m3 0 µg/m3 13.37 µg/m3 6.77 µg/m3 0 mg/m3 11.5 °C 88.81 % 1,024.45 mbar 1.45 m/s 193.68 Deg 22.58 µg/m3
2022-01-17 01:00 55.07 µg/m3 0 µg/m3 16.47 µg/m3 9.14 µg/m3 0 mg/m3 11.06 °C 91.08 % 1,024.55 mbar 1.73 m/s 192.35 Deg 25.38 µg/m3
2022-01-17 00:00 56.47 µg/m3 0 µg/m3 21.13 µg/m3 12.73 µg/m3 0 mg/m3 10.47 °C 92.53 % 1,024.73 mbar 2.26 m/s 198.19 Deg 37.1 µg/m3
2022-01-16 23:00 63.36 µg/m3 1.24 µg/m3 23.65 µg/m3 14.55 µg/m3 0.64 mg/m3 10.88 °C 92.21 % 1,025.00 mbar 2.01 m/s 199.13 Deg 55.46 µg/m3
2022-01-16 22:00 58.95 µg/m3 0 µg/m3 23.86 µg/m3 14.43 µg/m3 0 mg/m3 11.03 °C 91.16 % 1,024.99 mbar 1.78 m/s 197.7 Deg 27.74 µg/m3
2022-01-16 21:00 62.11 µg/m3 0 µg/m3 23.94 µg/m3 14.39 µg/m3 0 mg/m3 11.22 °C 89.71 % 1,024.74 mbar 2.18 m/s 201.71 Deg 36.47 µg/m3
2022-01-16 20:00 73.27 µg/m3 0.84 µg/m3 23.42 µg/m3 13.96 µg/m3 0.66 mg/m3 12.21 °C 87.19 % 1,024.28 mbar 1.97 m/s 197.05 Deg 46.43 µg/m3
2022-01-16 19:00 80.85 µg/m3 0.83 µg/m3 20.75 µg/m3 11.62 µg/m3 0.67 mg/m3 13.4 °C 83.21 % 1,023.92 mbar 1.65 m/s 207.65 Deg 24.87 µg/m3
2022-01-16 18:00 40.24 µg/m3 0.65 µg/m3 15.23 µg/m3 7.59 µg/m3 0.41 mg/m3 14.24 °C 78.81 % 1,023.31 mbar 0.59 m/s 230.24 Deg 4.42 µg/m3
2022-01-16 17:00 13.16 µg/m3 0.7 µg/m3 13.9 µg/m3 6.44 µg/m3 0.35 mg/m3 14.91 °C 76.42 % 1,022.95 mbar 0.5 m/s 221.88 Deg 0.68 µg/m3
2022-01-16 16:00 17 µg/m3 1.02 µg/m3 14.21 µg/m3 6.6 µg/m3 0.35 mg/m3 15.52 °C 73.03 % 1,022.87 mbar 0.62 m/s 111.43 Deg 2.22 µg/m3
2022-01-16 15:00 14.68 µg/m3 1.15 µg/m3 14.67 µg/m3 6.88 µg/m3 0.38 mg/m3 15.33 °C 71.78 % 1,022.82 mbar 0.73 m/s 107.39 Deg 3.79 µg/m3
2022-01-16 14:00 14.36 µg/m3 1.21 µg/m3 13.26 µg/m3 6.28 µg/m3 0.33 mg/m3 14.99 °C 72.08 % 1,022.90 mbar 0.77 m/s 125.75 Deg 2.76 µg/m3
2022-01-16 13:00 20.3 µg/m3 1.1 µg/m3 13.74 µg/m3 6.46 µg/m3 0.35 mg/m3 14.55 °C 74.21 % 1,023.23 mbar 0.85 m/s 37.53 Deg 4.14 µg/m3
2022-01-16 12:00 30.89 µg/m3 0.94 µg/m3 15.5 µg/m3 6.92 µg/m3 0.4 mg/m3 14.67 °C 74.61 % 1,023.47 mbar 0.59 m/s 141.66 Deg 7 µg/m3
2022-01-16 11:00 57.57 µg/m3 1 µg/m3 14.72 µg/m3 7.59 µg/m3 0.43 mg/m3 13.44 °C 75.07 % 1,023.65 mbar 0.39 m/s 179.9 Deg 36.99 µg/m3
2022-01-16 10:00 68.58 µg/m3 1.25 µg/m3 18.09 µg/m3 9.67 µg/m3 0.58 mg/m3 11.09 °C 82.52 % 1,023.31 mbar 0.87 m/s 182.49 Deg 71.58 µg/m3
2022-01-16 09:00 56.59 µg/m3 1.26 µg/m3 18.43 µg/m3 10.02 µg/m3 0.54 mg/m3 8.64 °C 90.41 % 1,022.71 mbar 2.22 m/s 196.03 Deg 72.16 µg/m3
2022-01-16 08:00 58.86 µg/m3 1.6 µg/m3 16.57 µg/m3 9.06 µg/m3 0.45 mg/m3 7.89 °C 92.27 % 1,022.26 mbar 2.38 m/s 201.34 Deg 112.39 µg/m3
2022-01-16 07:00 48.57 µg/m3 0.86 µg/m3 14.19 µg/m3 7.38 µg/m3 0.38 mg/m3 8.13 °C 92.31 % 1,021.56 mbar 2.27 m/s 203.94 Deg 45.12 µg/m3
2022-01-16 06:00 44.34 µg/m3 0.53 µg/m3 13.64 µg/m3 7.02 µg/m3 0.35 mg/m3 8.38 °C 91.28 % 1,020.82 mbar 2.13 m/s 198.76 Deg 17.05 µg/m3
2022-01-16 05:00 44.64 µg/m3 0.51 µg/m3 13.23 µg/m3 6.68 µg/m3 0.23 mg/m3 8.25 °C 91.26 % 1,020.81 mbar 2.58 m/s 204.28 Deg 19.03 µg/m3
2022-01-16 04:00 49.36 µg/m3 0.62 µg/m3 14.08 µg/m3 7.31 µg/m3 0.37 mg/m3 8.42 °C 90.4 % 1,021.21 mbar 2.39 m/s 202.98 Deg 28.12 µg/m3
2022-01-16 03:00 48.17 µg/m3 0.52 µg/m3 14.86 µg/m3 7.87 µg/m3 0.39 mg/m3 8.53 °C 89.18 % 1,021.11 mbar 2.38 m/s 199.91 Deg 23.57 µg/m3
2022-01-16 02:00 54.86 µg/m3 0.72 µg/m3 17.72 µg/m3 9.99 µg/m3 0.51 mg/m3 8.61 °C 89.04 % 1,020.46 mbar 2.41 m/s 199.05 Deg 38.06 µg/m3
2022-01-16 01:00 61.39 µg/m3 0.99 µg/m3 21.67 µg/m3 12.94 µg/m3 0.58 mg/m3 9 °C 87.97 % 1,020.81 mbar 2.18 m/s 203.41 Deg 55.09 µg/m3
2022-01-16 00:00 64.09 µg/m3 0.93 µg/m3 25.14 µg/m3 15.41 µg/m3 0.7 mg/m3 9.35 °C 87.05 % 1,020.51 mbar 1.86 m/s 202.17 Deg 46.99 µg/m3
2022-01-15 23:00 68.88 µg/m3 0.9 µg/m3 27.27 µg/m3 17.06 µg/m3 0.63 mg/m3 9.46 °C 85.91 % 1,020.06 mbar 1.97 m/s 201.28 Deg 41.13 µg/m3
2022-01-15 22:00 70.48 µg/m3 0.84 µg/m3 27.84 µg/m3 17.29 µg/m3 0.7 mg/m3 9.87 °C 85.32 % 1,020.65 mbar 1.72 m/s 197.63 Deg 38.64 µg/m3
2022-01-15 21:00 77.38 µg/m3 0.99 µg/m3 25.1 µg/m3 14.87 µg/m3 0.74 mg/m3 10.46 °C 82.52 % 1,020.18 mbar 2.02 m/s 199.63 Deg 46.4 µg/m3
2022-01-15 20:00 82.59 µg/m3 0.64 µg/m3 22.44 µg/m3 12.59 µg/m3 0.68 mg/m3 11.4 °C 77.66 % 1,020.00 mbar 1.73 m/s 196.7 Deg 20.58 µg/m3
2022-01-15 19:00 66.79 µg/m3 0.51 µg/m3 20.19 µg/m3 10.78 µg/m3 0.6 mg/m3 12.24 °C 73.18 % 1,019.75 mbar 1.86 m/s 211.4 Deg 14.45 µg/m3
2022-01-15 18:00 25.64 µg/m3 0.32 µg/m3 11.71 µg/m3 5 µg/m3 0.36 mg/m3 13.07 °C 67.47 % 1,019.33 mbar 1.2 m/s 276.61 Deg 0.86 µg/m3
2022-01-15 17:00 17.39 µg/m3 0.43 µg/m3 10.84 µg/m3 4.38 µg/m3 0.33 mg/m3 13.82 °C 64.57 % 1,019.33 mbar 1.13 m/s 329.41 Deg 3.13 µg/m3
2022-01-15 16:00 11.7 µg/m3 0.38 µg/m3 10.38 µg/m3 4.2 µg/m3 0.31 mg/m3 13.83 °C 64.08 % 1,019.09 mbar 1.76 m/s 344.55 Deg 2.89 µg/m3
2022-01-15 15:00 5.73 µg/m3 0.38 µg/m3 11.8 µg/m3 4.27 µg/m3 0.3 mg/m3 13.93 °C 63.07 % 1,019.01 mbar 1.83 m/s 332.13 Deg 1.16 µg/m3
2022-01-15 14:00 6.98 µg/m3 0.44 µg/m3 10.41 µg/m3 4.08 µg/m3 0.29 mg/m3 13.74 °C 60.83 % 1,019.22 mbar 2.01 m/s 322.38 Deg 1.64 µg/m3
2022-01-15 13:00 10.41 µg/m3 0.56 µg/m3 10.66 µg/m3 4.28 µg/m3 0.28 mg/m3 13.52 °C 61.84 % 1,020.01 mbar 2.09 m/s 317.71 Deg 3.3 µg/m3
2022-01-15 12:00 12.75 µg/m3 0.56 µg/m3 10.9 µg/m3 4.42 µg/m3 0.3 mg/m3 13.2 °C 65.61 % 1,020.86 mbar 2.03 m/s 295.03 Deg 5.65 µg/m3
2022-01-15 11:00 10.01 µg/m3 0.44 µg/m3 10.29 µg/m3 4.22 µg/m3 0.29 mg/m3 12.63 °C 66.38 % 1,021.25 mbar 1.94 m/s 302.03 Deg 2.34 µg/m3
2022-01-15 10:00 53.37 µg/m3 0.9 µg/m3 15.74 µg/m3 6.84 µg/m3 0.43 mg/m3 11.49 °C 72.33 % 1,021.17 mbar 1.8 m/s 231.41 Deg 31.88 µg/m3
2022-01-15 09:00 105.09 µg/m3 2.53 µg/m3 24.92 µg/m3 12.58 µg/m3 0.68 mg/m3 9.17 °C 81.63 % 1,021.05 mbar 2.18 m/s 197.8 Deg 162.93 µg/m3
2022-01-15 08:00 97.81 µg/m3 2.67 µg/m3 22.49 µg/m3 11.64 µg/m3 0.63 mg/m3 7.87 °C 85.27 % 1,021.03 mbar 2.3 m/s 197.62 Deg 181.08 µg/m3
2022-01-15 07:00 78.86 µg/m3 1.73 µg/m3 17.77 µg/m3 9.5 µg/m3 0.42 mg/m3 7.48 °C 85.51 % 1,020.79 mbar 2.72 m/s 200.62 Deg 113.02 µg/m3
2022-01-15 06:00 58.9 µg/m3 0.66 µg/m3 15.31 µg/m3 8.01 µg/m3 0.31 mg/m3 7.43 °C 85.1 % 1,020.57 mbar 2.68 m/s 205.48 Deg 31.32 µg/m3
2022-01-15 05:00 62.72 µg/m3 0.82 µg/m3 15.89 µg/m3 7.8 µg/m3 0.19 mg/m3 7.57 °C 82.22 % 1,020.93 mbar 2.55 m/s 203.82 Deg 42.87 µg/m3
2022-01-15 04:00 66.07 µg/m3 0.77 µg/m3 15.47 µg/m3 7.61 µg/m3 0.23 mg/m3 7.57 °C 80.39 % 1,021.51 mbar 2.62 m/s 205.85 Deg 38.8 µg/m3
2022-01-15 03:00 65.17 µg/m3 0.7 µg/m3 16.21 µg/m3 8.22 µg/m3 0.3 mg/m3 7.78 °C 78.92 % 1,022.12 mbar 2.79 m/s 200.61 Deg 32.92 µg/m3
2022-01-15 02:00 75.23 µg/m3 0.89 µg/m3 17.15 µg/m3 8.96 µg/m3 0.34 mg/m3 8.31 °C 76.11 % 1,022.45 mbar 2.44 m/s 199.61 Deg 48.91 µg/m3
2022-01-15 01:00 66.56 µg/m3 0.49 µg/m3 15.39 µg/m3 7.76 µg/m3 0.34 mg/m3 9.04 °C 71.37 % 1,022.68 mbar 1.85 m/s 198.14 Deg 13.79 µg/m3
2022-01-15 00:00 59.62 µg/m3 0.39 µg/m3 17.63 µg/m3 9.72 µg/m3 0.36 mg/m3 9.5 °C 69.66 % 1,023.39 mbar 2.52 m/s 202.32 Deg 4.26 µg/m3
2022-01-14 23:00 50.88 µg/m3 0.38 µg/m3 15.97 µg/m3 8.41 µg/m3 0.36 mg/m3 10.19 °C 66.82 % 1,023.97 mbar 2.13 m/s 202.15 Deg 2.33 µg/m3
2022-01-14 22:00 70.52 µg/m3 0.67 µg/m3 18.84 µg/m3 10.13 µg/m3 0.49 mg/m3 10.33 °C 68.86 % 1,024.20 mbar 2.1 m/s 204.22 Deg 18.29 µg/m3
2022-01-14 21:00 34.15 µg/m3 0.52 µg/m3 16.24 µg/m3 7.8 µg/m3 0.37 mg/m3 11.41 °C 59.24 % 1,024.27 mbar 1.49 m/s 305.26 Deg 19.88 µg/m3
2022-01-14 20:00 14.19 µg/m3 0.28 µg/m3 11.68 µg/m3 4.74 µg/m3 0.23 mg/m3 12.06 °C 57.52 % 1,024.25 mbar 1.08 m/s 246.94 Deg 2.28 µg/m3
2022-01-14 19:00 16.77 µg/m3 0.29 µg/m3 12.09 µg/m3 4.69 µg/m3 0.25 mg/m3 12.24 °C 59.05 % 1,024.12 mbar 0.99 m/s 197.71 Deg 4.63 µg/m3
2022-01-14 18:00 26.68 µg/m3 0.31 µg/m3 11.32 µg/m3 4.65 µg/m3 0.24 mg/m3 12.48 °C 61.44 % 1,023.90 mbar 1.66 m/s 168.11 Deg 2.29 µg/m3
2022-01-14 17:00 41.63 µg/m3 0.43 µg/m3 11.87 µg/m3 5.05 µg/m3 0.25 mg/m3 12.71 °C 63.66 % 1,023.78 mbar 2.14 m/s 187.63 Deg 16.44 µg/m3
2022-01-14 16:00 9.54 µg/m3 0.23 µg/m3 13.05 µg/m3 5.01 µg/m3 0.24 mg/m3 13.09 °C 62.2 % 1,023.95 mbar 2.15 m/s 178.88 Deg 1.71 µg/m3
2022-01-14 15:00 19.02 µg/m3 0.32 µg/m3 12.22 µg/m3 4.88 µg/m3 0.23 mg/m3 13.1 °C 58.67 % 1,023.97 mbar 1.94 m/s 270.47 Deg 4.04 µg/m3
2022-01-14 14:00 15.9 µg/m3 0.3 µg/m3 12.89 µg/m3 5.06 µg/m3 0.26 mg/m3 12.98 °C 60.67 % 1,024.25 mbar 2.38 m/s 264.7 Deg 3.53 µg/m3
2022-01-14 13:00 10.86 µg/m3 0.26 µg/m3 13.92 µg/m3 5.62 µg/m3 0.26 mg/m3 12.89 °C 60.3 % 1,024.86 mbar 2.13 m/s 282.58 Deg 2.09 µg/m3
2022-01-14 12:00 10.07 µg/m3 0.24 µg/m3 12.89 µg/m3 5.36 µg/m3 0.25 mg/m3 12.78 °C 60.12 % 1,025.35 mbar 2 m/s 203.39 Deg 1.68 µg/m3
2022-01-14 11:00 7.29 µg/m3 0.28 µg/m3 18.93 µg/m3 7.53 µg/m3 0.26 mg/m3 12.77 °C 63.14 % 1,025.52 mbar 1.73 m/s 299.72 Deg 1.68 µg/m3
2022-01-14 10:00 8.3 µg/m3 0.25 µg/m3 14.94 µg/m3 6.3 µg/m3 0.27 mg/m3 12.59 °C 63.98 % 1,025.28 mbar 1.59 m/s 206.74 Deg 1.43 µg/m3
2022-01-14 09:00 13.16 µg/m3 0.3 µg/m3 14.23 µg/m3 6.2 µg/m3 0.24 mg/m3 12.61 °C 64 % 1,025.00 mbar 1.72 m/s 282.63 Deg 5.52 µg/m3
2022-01-14 08:00 11.75 µg/m3 0.25 µg/m3 13.44 µg/m3 5.97 µg/m3 0.25 mg/m3 12.41 °C 64.96 % 1,024.85 mbar 1.96 m/s 247.83 Deg 1.47 µg/m3
2022-01-14 07:00 10.03 µg/m3 0.23 µg/m3 13.22 µg/m3 5.97 µg/m3 0.24 mg/m3 12.26 °C 65.17 % 1,024.65 mbar 2.45 m/s 196.35 Deg 1.77 µg/m3
2022-01-14 06:00 7.76 µg/m3 0.23 µg/m3 13.36 µg/m3 6.08 µg/m3 0.22 mg/m3 12.2 °C 65.55 % 1,024.48 mbar 2.69 m/s 272.56 Deg 1.11 µg/m3
2022-01-14 05:00 6.6 µg/m3 0.22 µg/m3 13.11 µg/m3 6.04 µg/m3 0.17 mg/m3 12.21 °C 63.66 % 1,024.61 mbar 2.61 m/s 266.03 Deg 0.63 µg/m3
2022-01-14 04:00 6.35 µg/m3 0.23 µg/m3 13.48 µg/m3 6.36 µg/m3 0.22 mg/m3 12.1 °C 61.4 % 1,024.87 mbar 2.56 m/s 119.97 Deg 0.64 µg/m3
2022-01-14 03:00 9.32 µg/m3 0.23 µg/m3 13.45 µg/m3 6.26 µg/m3 0.22 mg/m3 11.9 °C 61.15 % 1,024.97 mbar 2.81 m/s 256.67 Deg 0.75 µg/m3
2022-01-14 02:00 5.02 µg/m3 0.22 µg/m3 13.71 µg/m3 6.43 µg/m3 0.23 mg/m3 12.04 °C 62.74 % 1,024.83 mbar 2.57 m/s 254.7 Deg 0.48 µg/m3
2022-01-14 01:00 3.84 µg/m3 0.18 µg/m3 14.02 µg/m3 6.6 µg/m3 0.24 mg/m3 12.32 °C 62.93 % 1,024.95 mbar 2.2 m/s 234.15 Deg 0.56 µg/m3
2022-01-14 00:00 4.9 µg/m3 0.22 µg/m3 13.64 µg/m3 6.32 µg/m3 0.24 mg/m3 12.46 °C 63.37 % 1,025.07 mbar 2.11 m/s 212.08 Deg 0.88 µg/m3
2022-01-13 23:00 4.53 µg/m3 0.19 µg/m3 13.12 µg/m3 6.08 µg/m3 0.24 mg/m3 12.56 °C 63.17 % 1,025.18 mbar 2.2 m/s 302.08 Deg 0.79 µg/m3
2022-01-13 22:00 6.32 µg/m3 0.17 µg/m3 13.56 µg/m3 6.28 µg/m3 0.24 mg/m3 12.54 °C 66.11 % 1,025.14 mbar 1.88 m/s 268.14 Deg 1.05 µg/m3
2022-01-13 21:00 4.64 µg/m3 0.16 µg/m3 13.59 µg/m3 6.25 µg/m3 0.24 mg/m3 12.52 °C 67.07 % 1,024.86 mbar 1.85 m/s 176.8 Deg 0.44 µg/m3
2022-01-13 20:00 5.25 µg/m3 0.19 µg/m3 13.62 µg/m3 6.36 µg/m3 0.26 mg/m3 12.59 °C 68.74 % 1,024.44 mbar 1.94 m/s 266.07 Deg 0.63 µg/m3
2022-01-13 19:00 6.76 µg/m3 0.18 µg/m3 13.54 µg/m3 6.23 µg/m3 0.28 mg/m3 12.66 °C 68.94 % 1,023.92 mbar 1.89 m/s 256.67 Deg 0.9 µg/m3
2022-01-13 18:00 6.89 µg/m3 0.15 µg/m3 13.74 µg/m3 6.38 µg/m3 0.29 mg/m3 12.83 °C 70.89 % 1,023.27 mbar 1.86 m/s 255.75 Deg 1.65 µg/m3
2022-01-13 17:00 5.51 µg/m3 0.13 µg/m3 13.9 µg/m3 6.35 µg/m3 0.28 mg/m3 12.99 °C 70.33 % 1,022.80 mbar 2.06 m/s 273.13 Deg 0.95 µg/m3
2022-01-13 16:00 4.56 µg/m3 0.2 µg/m3 14.42 µg/m3 6.54 µg/m3 0.26 mg/m3 13.06 °C 69.75 % 1,022.49 mbar 2.15 m/s 274.77 Deg 0.94 µg/m3
2022-01-13 15:00 3.45 µg/m3 0.18 µg/m3 14.7 µg/m3 6.8 µg/m3 0.25 mg/m3 12.98 °C 71.01 % 1,022.03 mbar 2.2 m/s 267.93 Deg 0.91 µg/m3
2022-01-13 14:00 5.1 µg/m3 0.15 µg/m3 14.39 µg/m3 6.64 µg/m3 0.25 mg/m3 12.96 °C 71.42 % 1,021.85 mbar 2.23 m/s 271.62 Deg 1.15 µg/m3
2022-01-13 13:00 5.89 µg/m3 0.2 µg/m3 14.44 µg/m3 6.8 µg/m3 0.26 mg/m3 12.74 °C 74.45 % 1,022.00 mbar 2.09 m/s 275.18 Deg 1.38 µg/m3
2022-01-13 12:00 5.24 µg/m3 0.2 µg/m3 13.91 µg/m3 6.66 µg/m3 0.28 mg/m3 12.96 °C 76.64 % 1,022.10 mbar 2.29 m/s 222.22 Deg 1.53 µg/m3
2022-01-13 11:00 8.72 µg/m3 0.2 µg/m3 12.87 µg/m3 5.85 µg/m3 0.36 mg/m3 13.23 °C 75.82 % 1,022.00 mbar 1.99 m/s 249.53 Deg 2.51 µg/m3
2022-01-13 10:00 15.83 µg/m3 0.22 µg/m3 11.37 µg/m3 4.98 µg/m3 0.3 mg/m3 12.85 °C 80.36 % 1,021.53 mbar 2.26 m/s 279.29 Deg 6.53 µg/m3
2022-01-13 09:00 13.33 µg/m3 0.2 µg/m3 10.45 µg/m3 4.26 µg/m3 0.28 mg/m3 12.94 °C 77.58 % 1,020.85 mbar 1.69 m/s 269.83 Deg 2.62 µg/m3
2022-01-13 08:00 42.77 µg/m3 0.38 µg/m3 12.62 µg/m3 6.1 µg/m3 0.38 mg/m3 11.98 °C 83.04 % 1,020.28 mbar 1.26 m/s 255.32 Deg 19.61 µg/m3
2022-01-13 07:00 41.19 µg/m3 0.3 µg/m3 10.69 µg/m3 4.6 µg/m3 0.48 mg/m3 11.8 °C 83.22 % 1,019.81 mbar 0.92 m/s 285.74 Deg 6.08 µg/m3
2022-01-13 06:00 34.43 µg/m3 0.23 µg/m3 9.93 µg/m3 4.13 µg/m3 0.29 mg/m3 10.73 °C 87.25 % 1,019.51 mbar 1.06 m/s 224.57 Deg 9.92 µg/m3
2022-01-13 05:00 11.23 µg/m3 0.11 µg/m3 9.38 µg/m3 3.74 µg/m3 0.19 mg/m3 10.67 °C 91.05 % 1,019.29 mbar 1.71 m/s 284.54 Deg 1.67 µg/m3
2022-01-13 04:00 0.02 µg/m3 0.09 µg/m3 9.99 µg/m3 4.1 µg/m3 0.25 mg/m3 10.81 °C 90.33 % 1,019.36 mbar 1.85 m/s 322.6 Deg 0.25 µg/m3
2022-01-13 03:00 11.67 µg/m3 0.13 µg/m3 9.74 µg/m3 4.09 µg/m3 0.26 mg/m3 11.15 °C 89.33 % 1,019.23 mbar 2.04 m/s 246.44 Deg 1.2 µg/m3
2022-01-13 02:00 8.94 µg/m3 0.19 µg/m3 9.3 µg/m3 3.75 µg/m3 0.26 mg/m3 10.9 °C 91.29 % 1,019.12 mbar 1.88 m/s 273.91 Deg 1.66 µg/m3
2022-01-13 01:00 9.33 µg/m3 0.15 µg/m3 8.89 µg/m3 3.47 µg/m3 0.26 mg/m3 10.45 °C 92.06 % 1,019.04 mbar 1.88 m/s 275.96 Deg 1.08 µg/m3
2022-01-13 00:00 20.77 µg/m3 0.17 µg/m3 9.59 µg/m3 3.99 µg/m3 0.31 mg/m3 10.22 °C 93.06 % 1,018.94 mbar 2.94 m/s 217.75 Deg 2.37 µg/m3
2022-01-12 23:00 12.97 µg/m3 0.2 µg/m3 8.4 µg/m3 3.07 µg/m3 0.28 mg/m3 10.15 °C 93.52 % 1,018.79 mbar 2.11 m/s 274.33 Deg 8.59 µg/m3
2022-01-12 22:00 13.05 µg/m3 0.18 µg/m3 10.81 µg/m3 4.91 µg/m3 0.31 mg/m3 10.66 °C 94.24 % 1,018.35 mbar 2.73 m/s 271.18 Deg 1.44 µg/m3
2022-01-12 21:00 16.13 µg/m3 0.18 µg/m3 12.13 µg/m3 5.85 µg/m3 0.33 mg/m3 11.33 °C 91.32 % 1,017.94 mbar 2.42 m/s 269.81 Deg 1.47 µg/m3
2022-01-12 20:00 21.51 µg/m3 0.25 µg/m3 11.92 µg/m3 5.54 µg/m3 0.31 mg/m3 11.82 °C 86.77 % 1,017.33 mbar 1.59 m/s 260.58 Deg 3.6 µg/m3
2022-01-12 19:00 17.9 µg/m3 0.36 µg/m3 14.1 µg/m3 5.93 µg/m3 0.29 mg/m3 13.37 °C 71.96 % 1,016.60 mbar 1.03 m/s 265.64 Deg 1.22 µg/m3
2022-01-12 18:00 48.19 µg/m3 0.74 µg/m3 16.04 µg/m3 6.97 µg/m3 0.35 mg/m3 13.45 °C 70.53 % 1,015.86 mbar 0.77 m/s 298.52 Deg 23.05 µg/m3
2022-01-12 17:00 27.82 µg/m3 0.53 µg/m3 14.68 µg/m3 6.56 µg/m3 0.32 mg/m3 13.29 °C 74.48 % 1,015.32 mbar 0.66 m/s 314.01 Deg 6.23 µg/m3
2022-01-12 16:00 41.06 µg/m3 0.7 µg/m3 16.43 µg/m3 7.77 µg/m3 0.35 mg/m3 13.61 °C 76.45 % 1,015.02 mbar 0.82 m/s 243.43 Deg 16.89 µg/m3
2022-01-12 15:00 24.08 µg/m3 0.57 µg/m3 15.18 µg/m3 6.75 µg/m3 0.33 mg/m3 13.86 °C 76.82 % 1,014.59 mbar 0.75 m/s 247.74 Deg 4.34 µg/m3
2022-01-12 14:00 9.38 µg/m3 0.41 µg/m3 15.5 µg/m3 6.7 µg/m3 0.31 mg/m3 14.34 °C 68.63 % 1,014.45 mbar 1.01 m/s 325.21 Deg 2.58 µg/m3
2022-01-12 13:00 9.68 µg/m3 0.55 µg/m3 13.57 µg/m3 5.83 µg/m3 0.32 mg/m3 14.6 °C 66.23 % 1,014.33 mbar 1.27 m/s 342.63 Deg 3.48 µg/m3
2022-01-12 12:00 16.77 µg/m3 0.74 µg/m3 14.84 µg/m3 6.24 µg/m3 0.28 mg/m3 14.77 °C 66.33 % 1,014.40 mbar 0.9 m/s 187.29 Deg 6.87 µg/m3
2022-01-12 11:00 35.48 µg/m3 0.89 µg/m3 17.66 µg/m3 6.99 µg/m3 0.4 mg/m3 14.01 °C 70.77 % 1,014.47 mbar 0.71 m/s 165.35 Deg 19.62 µg/m3
2022-01-12 10:00 113.12 µg/m3 3.5 µg/m3 37.2 µg/m3 18.29 µg/m3 0.9 mg/m3 12.68 °C 77.4 % 1,013.92 mbar 0.62 m/s 158.79 Deg 223.49 µg/m3
2022-01-12 09:00 113.79 µg/m3 4 µg/m3 35.86 µg/m3 18.42 µg/m3 0.93 mg/m3 10.92 °C 83.44 % 1,013.20 mbar 1.46 m/s 190.63 Deg 269.26 µg/m3
2022-01-12 08:00 90.51 µg/m3 2.84 µg/m3 22.86 µg/m3 11.32 µg/m3 0.9 mg/m3 10.49 °C 84.1 % 1,012.49 mbar 1.57 m/s 197.72 Deg 174.59 µg/m3
2022-01-12 07:00 69.83 µg/m3 2.01 µg/m3 23.21 µg/m3 13.13 µg/m3 0.62 mg/m3 10.34 °C 84.39 % 1,011.93 mbar 1.91 m/s 198.57 Deg 114.69 µg/m3
2022-01-12 06:00 65.96 µg/m3 1.5 µg/m3 27.23 µg/m3 16.59 µg/m3 0.39 mg/m3 10.37 °C 84.51 % 1,011.34 mbar 2.06 m/s 202.65 Deg 96.33 µg/m3
2022-01-12 05:00 60.06 µg/m3 0.98 µg/m3 19.04 µg/m3 10.67 µg/m3 0.27 mg/m3 10.56 °C 84.53 % 1,011.03 mbar 1.96 m/s 199.84 Deg 59.68 µg/m3
2022-01-12 04:00 52.6 µg/m3 0.55 µg/m3 15.05 µg/m3 7.29 µg/m3 0.33 mg/m3 11.02 °C 82.94 % 1,010.93 mbar 1.92 m/s 200.44 Deg 22.01 µg/m3
2022-01-12 03:00 56.75 µg/m3 0.45 µg/m3 12.82 µg/m3 5.91 µg/m3 0.31 mg/m3 12.25 °C 75.13 % 1,010.99 mbar 1.78 m/s 234.43 Deg 19.09 µg/m3
2022-01-12 02:00 20.09 µg/m3 0.44 µg/m3 11.61 µg/m3 4.98 µg/m3 0.28 mg/m3 13.2 °C 69.11 % 1,010.62 mbar 1.08 m/s 321.73 Deg 7.07 µg/m3
2022-01-12 01:00 48.44 µg/m3 0.6 µg/m3 12.4 µg/m3 5.45 µg/m3 0.29 mg/m3 13.19 °C 69.01 % 1,010.39 mbar 1.63 m/s 263.95 Deg 19.8 µg/m3
2022-01-12 00:00 6.79 µg/m3 0.3 µg/m3 11.53 µg/m3 4.92 µg/m3 0.27 mg/m3 13.55 °C 65.95 % 1,010.15 mbar 1.75 m/s 314.58 Deg 1.24 µg/m3
2022-01-11 23:00 1.75 µg/m3 0.25 µg/m3 11.85 µg/m3 5.12 µg/m3 0.27 mg/m3 13.68 °C 66.02 % 1,009.79 mbar 2.32 m/s 252.61 Deg 2.1 µg/m3
2022-01-11 22:00 4.75 µg/m3 0.29 µg/m3 11.88 µg/m3 5.1 µg/m3 0.27 mg/m3 13.75 °C 64.76 % 1,009.12 mbar 2.23 m/s 327.68 Deg 2.27 µg/m3
2022-01-11 21:00 1.09 µg/m3 0.32 µg/m3 11.66 µg/m3 5 µg/m3 0.27 mg/m3 13.94 °C 64.34 % 1,008.59 mbar 2.28 m/s 326.4 Deg 0.58 µg/m3
2022-01-11 20:00 1.95 µg/m3 0.36 µg/m3 11.21 µg/m3 4.68 µg/m3 0.26 mg/m3 14.31 °C 61.06 % 1,007.88 mbar 2.34 m/s 340.47 Deg 0.59 µg/m3
2022-01-11 19:00 3.95 µg/m3 0.38 µg/m3 11.64 µg/m3 4.8 µg/m3 0.27 mg/m3 14.42 °C 61.59 % 1,007.36 mbar 2.43 m/s 331.62 Deg 1.48 µg/m3
2022-01-11 18:00 4.3 µg/m3 0.4 µg/m3 11.36 µg/m3 4.76 µg/m3 0.27 mg/m3 14.39 °C 63.26 % 1,006.54 mbar 2.59 m/s 321.61 Deg 0.85 µg/m3
2022-01-11 17:00 14.25 µg/m3 0.51 µg/m3 11.36 µg/m3 4.73 µg/m3 0.28 mg/m3 14.38 °C 64.43 % 1,006.09 mbar 3 m/s 299.87 Deg 3.23 µg/m3
2022-01-11 16:00 13.43 µg/m3 0.44 µg/m3 11 µg/m3 4.44 µg/m3 0.29 mg/m3 14.42 °C 63.85 % 1,005.65 mbar 3.31 m/s 291.78 Deg 3.48 µg/m3
2022-01-11 15:00 6.46 µg/m3 0.43 µg/m3 10.99 µg/m3 4.19 µg/m3 0.27 mg/m3 14.27 °C 63.21 % 1,005.20 mbar 3.2 m/s 297.22 Deg 2.43 µg/m3
2022-01-11 14:00 8.77 µg/m3 0.51 µg/m3 10.78 µg/m3 4.18 µg/m3 0.26 mg/m3 14.05 °C 62.85 % 1,004.66 mbar 3.16 m/s 303.99 Deg 7.01 µg/m3
2022-01-11 13:00 5.64 µg/m3 0.51 µg/m3 10.06 µg/m3 3.75 µg/m3 0.25 mg/m3 13.95 °C 62.36 % 1,004.34 mbar 3.02 m/s 301.75 Deg 2.06 µg/m3
2022-01-11 12:00 9.85 µg/m3 0.51 µg/m3 10.66 µg/m3 3.7 µg/m3 0.25 mg/m3 13.75 °C 64.12 % 1,004.43 mbar 2.59 m/s 325.1 Deg 7.4 µg/m3
2022-01-11 11:00 3.15 µg/m3 0.38 µg/m3 9.94 µg/m3 3.65 µg/m3 0.23 mg/m3 13.07 °C 65.16 % 1,004.29 mbar 2.86 m/s 332.36 Deg 1.44 µg/m3
2022-01-11 10:00 4.71 µg/m3 0.34 µg/m3 10.18 µg/m3 3.79 µg/m3 0.23 mg/m3 12.78 °C 68.47 % 1,003.60 mbar 2.73 m/s 337.77 Deg 1.83 µg/m3
2022-01-11 09:00 3.95 µg/m3 0.34 µg/m3 10.19 µg/m3 3.68 µg/m3 0.22 mg/m3 12.34 °C 68.55 % 1,002.62 mbar 3.13 m/s 321.32 Deg 1.42 µg/m3
2022-01-11 08:00 5.58 µg/m3 0.42 µg/m3 9.23 µg/m3 3.32 µg/m3 0.21 mg/m3 12.13 °C 67.67 % 1,001.83 mbar 2.63 m/s 320.58 Deg 1.24 µg/m3
2022-01-11 07:00 10.84 µg/m3 0.59 µg/m3 9.24 µg/m3 3.48 µg/m3 0.23 mg/m3 11.85 °C 66.91 % 1,001.16 mbar 2.65 m/s 305.55 Deg 2.42 µg/m3
2022-01-11 06:00 17.11 µg/m3 0.64 µg/m3 9.66 µg/m3 3.86 µg/m3 0.19 mg/m3 11.91 °C 64.59 % 1,000.65 mbar 3.19 m/s 284.37 Deg 2.99 µg/m3
2022-01-11 05:00 12.17 µg/m3 0.51 µg/m3 9.54 µg/m3 3.8 µg/m3 0.15 mg/m3 11.9 °C 63.8 % 1,000.47 mbar 3.05 m/s 289.09 Deg 1.79 µg/m3
2022-01-11 04:00 7.54 µg/m3 0.52 µg/m3 10.09 µg/m3 4.16 µg/m3 0.25 mg/m3 12.04 °C 60.72 % 1,000.46 mbar 2.71 m/s 310.05 Deg 1.36 µg/m3
2022-01-11 03:00 13.12 µg/m3 0.55 µg/m3 9.88 µg/m3 4.02 µg/m3 0.25 mg/m3 12.02 °C 61.7 % 1,000.42 mbar 2.61 m/s 290.53 Deg 1.28 µg/m3
2022-01-11 02:00 5.17 µg/m3 0.45 µg/m3 9.36 µg/m3 3.68 µg/m3 0.25 mg/m3 11.92 °C 62.12 % 999.91 mbar 3.2 m/s 298.97 Deg 0.83 µg/m3
2022-01-11 01:00 10.79 µg/m3 0.42 µg/m3 9.41 µg/m3 3.71 µg/m3 0.25 mg/m3 12.06 °C 62.06 % 999.74 mbar 3.15 m/s 282.68 Deg 1.53 µg/m3
2022-01-11 00:00 10.41 µg/m3 0.35 µg/m3 9.4 µg/m3 3.62 µg/m3 0.24 mg/m3 12.12 °C 61.87 % 999.59 mbar 3.04 m/s 303.12 Deg 1.51 µg/m3
2022-01-10 23:00 7.5 µg/m3 0.25 µg/m3 8.94 µg/m3 3.28 µg/m3 0.24 mg/m3 12.14 °C 62.41 % 999.10 mbar 3.21 m/s 304.22 Deg 1.38 µg/m3
2022-01-10 22:00 7.99 µg/m3 0.21 µg/m3 8.91 µg/m3 3.23 µg/m3 0.24 mg/m3 12.18 °C 62.92 % 998.50 mbar 3.54 m/s 299.3 Deg 1.65 µg/m3
2022-01-10 21:00 5.83 µg/m3 0.16 µg/m3 9.09 µg/m3 3.3 µg/m3 0.25 mg/m3 12.28 °C 61.72 % 998.42 mbar 3.33 m/s 306.12 Deg 1.2 µg/m3
2022-01-10 20:00 8.56 µg/m3 0.2 µg/m3 9.07 µg/m3 3.23 µg/m3 0.25 mg/m3 12.17 °C 62.48 % 998.11 mbar 3.61 m/s 317.86 Deg 1.72 µg/m3
2022-01-10 19:00 7.66 µg/m3 0.19 µg/m3 8.95 µg/m3 3.19 µg/m3 0.26 mg/m3 11.91 °C 64.99 % 997.65 mbar 4.34 m/s 292.58 Deg 1.55 µg/m3
2022-01-10 18:00 12.05 µg/m3 0.23 µg/m3 8.96 µg/m3 3.09 µg/m3 0.26 mg/m3 11.83 °C 66.48 % 996.97 mbar 4.84 m/s 288.13 Deg 3.22 µg/m3
2022-01-10 17:00 11.01 µg/m3 0.14 µg/m3 8.58 µg/m3 2.89 µg/m3 0.26 mg/m3 11.83 °C 65.45 % 996.24 mbar 6.3 m/s 278.58 Deg 2.78 µg/m3
2022-01-10 16:00 10.3 µg/m3 0.14 µg/m3 8.99 µg/m3 3.01 µg/m3 0.26 mg/m3 12.28 °C 63.52 % 995.64 mbar 6.11 m/s 278.76 Deg 3.06 µg/m3
2022-01-10 15:00 8.93 µg/m3 0.12 µg/m3 9.17 µg/m3 3.04 µg/m3 0.25 mg/m3 12.3 °C 62.53 % 995.12 mbar 6.68 m/s 278.69 Deg 2.82 µg/m3
2022-01-10 14:00 7.32 µg/m3 0.11 µg/m3 10.58 µg/m3 3.8 µg/m3 0.24 mg/m3 12.52 °C 60.72 % 995.42 mbar 7.25 m/s 281.98 Deg 2.76 µg/m3
2022-01-10 13:00 6.46 µg/m3 0.07 µg/m3 9.7 µg/m3 3.44 µg/m3 0.22 mg/m3 12.69 °C 57.73 % 995.61 mbar 7.34 m/s 265.72 Deg 2.55 µg/m3
2022-01-10 12:00 12.41 µg/m3 0.12 µg/m3 8.53 µg/m3 2.99 µg/m3 0.22 mg/m3 11.49 °C 65.98 % 996.51 mbar 4.89 m/s 269.41 Deg 3.89 µg/m3
2022-01-10 11:00 10.49 µg/m3 0.16 µg/m3 8.75 µg/m3 2.99 µg/m3 0.19 mg/m3 12.12 °C 58.81 % 997.11 mbar 4.88 m/s 280.68 Deg 3.53 µg/m3
2022-01-10 10:00 16.51 µg/m3 0.12 µg/m3 8.75 µg/m3 3.09 µg/m3 0.19 mg/m3 11.58 °C 66.56 % 997.16 mbar 4.1 m/s 272.83 Deg 5.57 µg/m3
2022-01-10 09:00 19.33 µg/m3 0.04 µg/m3 8.05 µg/m3 2.74 µg/m3 0.2 mg/m3 10.2 °C 74.15 % 997.14 mbar 4.42 m/s 269.71 Deg 3.79 µg/m3
2022-01-10 08:00 26.49 µg/m3 0.05 µg/m3 7.98 µg/m3 2.72 µg/m3 0.24 mg/m3 10.56 °C 78.69 % 997.10 mbar 4.36 m/s 227.3 Deg 2.48 µg/m3
2022-01-10 07:00 16.99 µg/m3 0.06 µg/m3 7.88 µg/m3 2.68 µg/m3 0.22 mg/m3 9.83 °C 85.21 % 997.42 mbar 3.63 m/s 245.67 Deg 2.68 µg/m3
2022-01-10 06:00 6.4 µg/m3 0.08 µg/m3 7.76 µg/m3 2.59 µg/m3 0.18 mg/m3 9.64 °C 87.71 % 998.18 mbar 3.66 m/s 265.68 Deg 3.58 µg/m3
2022-01-10 05:00 10.96 µg/m3 0.05 µg/m3 8.82 µg/m3 3.33 µg/m3 0.13 mg/m3 10 °C 84.76 % 998.71 mbar 3.49 m/s 281.97 Deg 4.62 µg/m3
2022-01-10 04:00 -1.58 µg/m3 0.01 µg/m3 8.04 µg/m3 2.78 µg/m3 0.15 mg/m3 10.76 °C 76.1 % 999.48 mbar 4.29 m/s 245.31 Deg 0.13 µg/m3
2022-01-10 03:00 -1.7 µg/m3 0.01 µg/m3 8.7 µg/m3 3.24 µg/m3 0.16 mg/m3 11.5 °C 75.46 % 1,000.46 mbar 5.51 m/s 227.03 Deg 0.03 µg/m3
2022-01-10 02:00 -0.22 µg/m3 0.05 µg/m3 10.22 µg/m3 3.3 µg/m3 0.15 mg/m3 11.16 °C 72.83 % 1,001.51 mbar 5.67 m/s 240.05 Deg 0.56 µg/m3
2022-01-10 01:00 2.56 µg/m3 0.02 µg/m3 8.4 µg/m3 3.03 µg/m3 0.15 mg/m3 12.53 °C 69.71 % 1,001.97 mbar 7 m/s 243.16 Deg 2.53 µg/m3
2022-01-10 00:00 -0.5 µg/m3 0 µg/m3 7.59 µg/m3 2.48 µg/m3 0.15 mg/m3 12.94 °C 72.27 % 1,002.78 mbar 7.85 m/s 213.99 Deg 0.12 µg/m3
2022-01-09 23:00 1.23 µg/m3 0.07 µg/m3 7.74 µg/m3 2.6 µg/m3 0.17 mg/m3 12.2 °C 76.01 % 1,003.55 mbar 6.9 m/s 210.95 Deg 0.27 µg/m3
2022-01-09 22:00 0.85 µg/m3 0.03 µg/m3 8.21 µg/m3 2.92 µg/m3 0.18 mg/m3 11.55 °C 78.73 % 1,004.37 mbar 5.11 m/s 238.05 Deg 0.22 µg/m3
2022-01-09 21:00 4.13 µg/m3 0.04 µg/m3 8.81 µg/m3 3.36 µg/m3 0.19 mg/m3 12.87 °C 73.53 % 1,004.68 mbar 6.25 m/s 242.45 Deg 1.05 µg/m3
2022-01-09 20:00 3.31 µg/m3 0.05 µg/m3 9.3 µg/m3 3.45 µg/m3 0.21 mg/m3 13.19 °C 71.6 % 1,004.83 mbar 6.33 m/s 230.74 Deg 1.23 µg/m3
2022-01-09 19:00 2.74 µg/m3 0.07 µg/m3 9.67 µg/m3 3.93 µg/m3 0.22 mg/m3 14.25 °C 71.55 % 1,005.15 mbar 6.94 m/s 249.38 Deg 0.47 µg/m3
2022-01-09 18:00 3.1 µg/m3 0.05 µg/m3 10.19 µg/m3 4.19 µg/m3 0.22 mg/m3 14.14 °C 70.37 % 1,005.37 mbar 6.4 m/s 254.98 Deg 0.14 µg/m3
2022-01-09 17:00 2.25 µg/m3 0.02 µg/m3 9.09 µg/m3 3.48 µg/m3 0.23 mg/m3 14.15 °C 70.06 % 1,005.66 mbar 6.91 m/s 249.1 Deg 0.12 µg/m3
2022-01-09 16:00 4.61 µg/m3 0.04 µg/m3 8.93 µg/m3 3.4 µg/m3 0.22 mg/m3 14.11 °C 72.4 % 1,005.91 mbar 6.19 m/s 246.03 Deg 2.06 µg/m3
2022-01-09 15:00 1.68 µg/m3 0.08 µg/m3 9.27 µg/m3 3.37 µg/m3 0.21 mg/m3 14.26 °C 67.68 % 1,006.16 mbar 6.11 m/s 264.83 Deg 0.5 µg/m3
2022-01-09 14:00 2.74 µg/m3 0.07 µg/m3 8.48 µg/m3 3.05 µg/m3 0.21 mg/m3 14.2 °C 66.74 % 1,006.75 mbar 6.35 m/s 261.11 Deg 0.94 µg/m3
2022-01-09 13:00 8.82 µg/m3 0.49 µg/m3 10.93 µg/m3 3.81 µg/m3 0.22 mg/m3 14.55 °C 62.88 % 1,007.38 mbar 5.15 m/s 277.68 Deg 24.78 µg/m3
2022-01-09 12:00 7.13 µg/m3 0.2 µg/m3 9.62 µg/m3 3.54 µg/m3 0.25 mg/m3 14.1 °C 66.52 % 1,008.13 mbar 3.96 m/s 281.12 Deg 2.45 µg/m3
2022-01-09 11:00 6.73 µg/m3 0.15 µg/m3 9.33 µg/m3 3.42 µg/m3 0.24 mg/m3 13.84 °C 66.5 % 1,008.90 mbar 4.13 m/s 279.33 Deg 2.76 µg/m3
2022-01-09 10:00 6.55 µg/m3 0.13 µg/m3 8.93 µg/m3 3.22 µg/m3 0.24 mg/m3 13.44 °C 63.84 % 1,008.89 mbar 3.97 m/s 286.08 Deg 1.81 µg/m3
2022-01-09 09:00 4.86 µg/m3 0.13 µg/m3 8.94 µg/m3 3.19 µg/m3 0.21 mg/m3 13.03 °C 64.43 % 1,008.70 mbar 3.82 m/s 274.56 Deg 1.07 µg/m3
2022-01-09 08:00 5.98 µg/m3 0.15 µg/m3 8.84 µg/m3 3.18 µg/m3 0.2 mg/m3 12.77 °C 64.5 % 1,008.57 mbar 3.97 m/s 276.22 Deg 2.13 µg/m3
2022-01-09 07:00 5.5 µg/m3 0.15 µg/m3 9.13 µg/m3 3.3 µg/m3 0.19 mg/m3 12.78 °C 63.66 % 1,008.34 mbar 3.21 m/s 293.62 Deg 2.2 µg/m3
2022-01-09 06:00 3.48 µg/m3 0.14 µg/m3 9.02 µg/m3 3.15 µg/m3 0.18 mg/m3 12.7 °C 58.7 % 1,008.13 mbar 3.65 m/s 290.69 Deg 0.75 µg/m3
2022-01-09 05:00 3.46 µg/m3 0.19 µg/m3 9.12 µg/m3 3.13 µg/m3 0.13 mg/m3 12.79 °C 52.98 % 1,007.96 mbar 3.66 m/s 285.75 Deg 0.75 µg/m3
2022-01-09 04:00 3.31 µg/m3 0.16 µg/m3 8.93 µg/m3 3.08 µg/m3 0.19 mg/m3 12.75 °C 54.76 % 1,007.97 mbar 4 m/s 291.37 Deg 0.66 µg/m3
2022-01-09 03:00 5.75 µg/m3 0.15 µg/m3 8.92 µg/m3 3.2 µg/m3 0.2 mg/m3 12.58 °C 62.69 % 1,007.90 mbar 3.32 m/s 278.12 Deg 0.7 µg/m3
2022-01-09 02:00 5.32 µg/m3 0.14 µg/m3 8.9 µg/m3 3.2 µg/m3 0.2 mg/m3 12.55 °C 61.68 % 1,007.94 mbar 3.26 m/s 283.45 Deg 0.89 µg/m3
2022-01-09 01:00 2.06 µg/m3 0.12 µg/m3 8.92 µg/m3 3.16 µg/m3 0.2 mg/m3 12.7 °C 54.2 % 1,008.01 mbar 2.77 m/s 318.06 Deg 0.33 µg/m3
2022-01-09 00:00 0.57 µg/m3 0.06 µg/m3 9.05 µg/m3 3.25 µg/m3 0.2 mg/m3 12.76 °C 56.14 % 1,008.16 mbar 3.07 m/s 332.44 Deg 0.14 µg/m3
2022-01-08 23:00 0.71 µg/m3 0.06 µg/m3 9.3 µg/m3 3.3 µg/m3 0.21 mg/m3 13.03 °C 56.1 % 1,008.08 mbar 3.16 m/s 335.29 Deg 0.41 µg/m3
2022-01-08 22:00 -0.23 µg/m3 0.03 µg/m3 9.15 µg/m3 3.36 µg/m3 0.22 mg/m3 12.91 °C 60.09 % 1,007.97 mbar 3.23 m/s 346.63 Deg 0.29 µg/m3
2022-01-08 21:00 1.46 µg/m3 0.03 µg/m3 8.59 µg/m3 3.03 µg/m3 0.22 mg/m3 12.98 °C 62.94 % 1,007.91 mbar 2.91 m/s 309.17 Deg 0.27 µg/m3
2022-01-08 20:00 2.45 µg/m3 0.03 µg/m3 8.6 µg/m3 2.94 µg/m3 0.24 mg/m3 13.1 °C 61.89 % 1,007.59 mbar 2.81 m/s 310.21 Deg 0.88 µg/m3
2022-01-08 19:00 0.77 µg/m3 0.06 µg/m3 8.6 µg/m3 2.95 µg/m3 0.23 mg/m3 13.07 °C 62.63 % 1,007.32 mbar 2.89 m/s 328.33 Deg 0.67 µg/m3
2022-01-08 18:00 0.34 µg/m3 0.03 µg/m3 8.22 µg/m3 2.7 µg/m3 0.23 mg/m3 13.17 °C 62.92 % 1,007.03 mbar 3.08 m/s 331.59 Deg 0.04 µg/m3
2022-01-08 17:00 1.1 µg/m3 0.06 µg/m3 9.33 µg/m3 3.27 µg/m3 0.24 mg/m3 13.49 °C 64 % 1,006.54 mbar 2.94 m/s 313.07 Deg 0.34 µg/m3
2022-01-08 16:00 4.97 µg/m3 0.13 µg/m3 9.42 µg/m3 3.26 µg/m3 0.24 mg/m3 13.78 °C 63.32 % 1,006.48 mbar 2.96 m/s 319.23 Deg 2.96 µg/m3
2022-01-08 15:00 5.83 µg/m3 0.09 µg/m3 9 µg/m3 3.12 µg/m3 0.23 mg/m3 13.56 °C 66.25 % 1,006.57 mbar 3.95 m/s 300.88 Deg 1.48 µg/m3
2022-01-08 14:00 4.84 µg/m3 0.08 µg/m3 8.8 µg/m3 3.01 µg/m3 0.23 mg/m3 13.67 °C 66.97 % 1,006.59 mbar 3.61 m/s 297.97 Deg 1.8 µg/m3
2022-01-08 13:00 7.98 µg/m3 0.12 µg/m3 9.45 µg/m3 3.44 µg/m3 0.23 mg/m3 13.31 °C 68.75 % 1,006.95 mbar 4.47 m/s 281.44 Deg 2.64 µg/m3
2022-01-08 12:00 7.83 µg/m3 0.12 µg/m3 9.11 µg/m3 3.14 µg/m3 0.23 mg/m3 14.01 °C 67.42 % 1,007.44 mbar 3.79 m/s 284.44 Deg 2.69 µg/m3
2022-01-08 11:00 7.77 µg/m3 0.12 µg/m3 9.01 µg/m3 3.24 µg/m3 0.24 mg/m3 13.76 °C 69.65 % 1,008.03 mbar 3.54 m/s 290.13 Deg 2.74 µg/m3
2022-01-08 10:00 9.83 µg/m3 0.07 µg/m3 8.71 µg/m3 3.17 µg/m3 0.21 mg/m3 13.47 °C 71.33 % 1,008.17 mbar 4.57 m/s 275 Deg 2.95 µg/m3
2022-01-08 09:00 6.75 µg/m3 0.02 µg/m3 9.15 µg/m3 3.52 µg/m3 0.22 mg/m3 12.68 °C 80.62 % 1,007.80 mbar 3.44 m/s 300.98 Deg 0.92 µg/m3
2022-01-08 08:00 7.84 µg/m3 0.09 µg/m3 9.32 µg/m3 3.57 µg/m3 0.22 mg/m3 13.61 °C 76.09 % 1,007.67 mbar 3.49 m/s 288.8 Deg 1.38 µg/m3
2022-01-08 07:00 10.36 µg/m3 0.05 µg/m3 9.45 µg/m3 3.67 µg/m3 0.21 mg/m3 13.86 °C 75.63 % 1,007.56 mbar 3.27 m/s 299.48 Deg 2.37 µg/m3
2022-01-08 06:00 6.44 µg/m3 0.04 µg/m3 9.4 µg/m3 3.6 µg/m3 0.2 mg/m3 13.8 °C 75.36 % 1,007.28 mbar 3.19 m/s 295.07 Deg 1.32 µg/m3
2022-01-08 05:00 6.61 µg/m3 0.06 µg/m3 9.52 µg/m3 3.76 µg/m3 0.15 mg/m3 13.7 °C 76.05 % 1,006.99 mbar 3.63 m/s 283.98 Deg 1.69 µg/m3
2022-01-08 04:00 2.56 µg/m3 0.01 µg/m3 9.3 µg/m3 3.59 µg/m3 0.23 mg/m3 13.82 °C 74.15 % 1,007.09 mbar 2.99 m/s 303.65 Deg 1.15 µg/m3
2022-01-08 03:00 2.42 µg/m3 0 µg/m3 9.6 µg/m3 3.77 µg/m3 0.23 mg/m3 13.99 °C 73.97 % 1,007.41 mbar 2.68 m/s 316.01 Deg 0.22 µg/m3
2022-01-08 02:00 -0.61 µg/m3 -0.03 µg/m3 9.09 µg/m3 3.4 µg/m3 0.23 mg/m3 13.96 °C 71.96 % 1,007.42 mbar 2.56 m/s 327.72 Deg 0.2 µg/m3
2022-01-08 01:00 0.65 µg/m3 -0.01 µg/m3 8.65 µg/m3 3.13 µg/m3 0.22 mg/m3 13.77 °C 73.37 % 1,007.48 mbar 2.66 m/s 311.31 Deg 0.35 µg/m3
2022-01-08 00:00 1.85 µg/m3 -0.01 µg/m3 8.59 µg/m3 3.09 µg/m3 0.22 mg/m3 13.73 °C 74.56 % 1,007.65 mbar 2.66 m/s 324.68 Deg 0.39 µg/m3
2022-01-07 23:00 5.69 µg/m3 0.03 µg/m3 8.82 µg/m3 3.3 µg/m3 0.22 mg/m3 13.73 °C 76.17 % 1,007.79 mbar 2.34 m/s 316.79 Deg 0.43 µg/m3
2022-01-07 22:00 4.51 µg/m3 0.03 µg/m3 9.19 µg/m3 3.55 µg/m3 0.21 mg/m3 13.82 °C 74.99 % 1,007.67 mbar 2.13 m/s 321.17 Deg 0.52 µg/m3
2022-01-07 21:00 3.85 µg/m3 0.05 µg/m3 9.4 µg/m3 3.65 µg/m3 0.21 mg/m3 13.69 °C 74.82 % 1,007.66 mbar 2.17 m/s 319.98 Deg 2.2 µg/m3
2022-01-07 20:00 1.93 µg/m3 0.06 µg/m3 8.75 µg/m3 3.2 µg/m3 0.2 mg/m3 13.58 °C 73.97 % 1,007.52 mbar 2.99 m/s 342.65 Deg 1.37 µg/m3
2022-01-07 19:00 2.87 µg/m3 0.04 µg/m3 8.71 µg/m3 3.23 µg/m3 0.21 mg/m3 13.36 °C 77.9 % 1,007.26 mbar 3.66 m/s 340.63 Deg 0.35 µg/m3
2022-01-07 18:00 14.5 µg/m3 0.2 µg/m3 9.2 µg/m3 3.66 µg/m3 0.22 mg/m3 12.65 °C 85.73 % 1,006.77 mbar 2.74 m/s 331.86 Deg 16.31 µg/m3
2022-01-07 17:00 5.78 µg/m3 0.04 µg/m3 9.22 µg/m3 3.61 µg/m3 0.22 mg/m3 13.48 °C 80.43 % 1,006.73 mbar 2.89 m/s 302.28 Deg 0.45 µg/m3
2022-01-07 16:00 12.17 µg/m3 0.07 µg/m3 9.04 µg/m3 3.5 µg/m3 0.24 mg/m3 13.2 °C 83.57 % 1,006.52 mbar 3.23 m/s 301.69 Deg 2.12 µg/m3
2022-01-07 15:00 17.17 µg/m3 0.09 µg/m3 9.41 µg/m3 3.73 µg/m3 0.23 mg/m3 13.04 °C 86.02 % 1,006.45 mbar 3.2 m/s 288.39 Deg 2.84 µg/m3
2022-01-07 14:00 20.75 µg/m3 0.25 µg/m3 10.38 µg/m3 4.37 µg/m3 0.22 mg/m3 13.62 °C 80.85 % 1,006.39 mbar 2.41 m/s 306.48 Deg 10 µg/m3
2022-01-07 13:00 11.64 µg/m3 0.09 µg/m3 10.43 µg/m3 4.48 µg/m3 0.22 mg/m3 13.48 °C 83.37 % 1,006.83 mbar 2.4 m/s 308.68 Deg 2.41 µg/m3
2022-01-07 12:00 20.23 µg/m3 0.07 µg/m3 9.71 µg/m3 4.02 µg/m3 0.23 mg/m3 12.86 °C 87.45 % 1,007.23 mbar 2.51 m/s 211.93 Deg 2.98 µg/m3
2022-01-07 11:00 20.96 µg/m3 0.1 µg/m3 9.99 µg/m3 4.29 µg/m3 0.25 mg/m3 12.39 °C 91.41 % 1,007.78 mbar 2.78 m/s 267 Deg 1.99 µg/m3
2022-01-07 10:00 9.88 µg/m3 0.08 µg/m3 9.92 µg/m3 4.09 µg/m3 0.21 mg/m3 12.75 °C 89.28 % 1,007.50 mbar 2.43 m/s 328.12 Deg 0.99 µg/m3
2022-01-07 09:00 13.78 µg/m3 0.11 µg/m3 11.14 µg/m3 4.86 µg/m3 0.23 mg/m3 13.22 °C 88.9 % 1,007.32 mbar 2.27 m/s 302.71 Deg 1.95 µg/m3
2022-01-07 08:00 15.35 µg/m3 0.16 µg/m3 10.85 µg/m3 4.8 µg/m3 0.23 mg/m3 13.49 °C 84.87 % 1,007.27 mbar 2.27 m/s 303.24 Deg 2.28 µg/m3
2022-01-07 07:00 14.5 µg/m3 0.17 µg/m3 10.6 µg/m3 4.61 µg/m3 0.22 mg/m3 13.65 °C 80.67 % 1,006.90 mbar 1.88 m/s 308.58 Deg 2.06 µg/m3
2022-01-07 06:00 0 µg/m3 0.15 µg/m3 10.31 µg/m3 4.46 µg/m3 0.19 mg/m3 13.47 °C 82.23 % 1,006.75 mbar 1.96 m/s 321.78 Deg 0 µg/m3
2022-01-07 05:00 0 µg/m3 0.11 µg/m3 10.47 µg/m3 4.57 µg/m3 0.15 mg/m3 13.61 °C 82.82 % 1,006.61 mbar 2.65 m/s 344.71 Deg 0 µg/m3
2022-01-07 04:00 0 µg/m3 0.1 µg/m3 10.21 µg/m3 4.37 µg/m3 0.22 mg/m3 13.72 °C 82.13 % 1,006.84 mbar 3.14 m/s 353.88 Deg 0 µg/m3
2022-01-07 03:00 3.87 µg/m3 0.1 µg/m3 10.55 µg/m3 4.58 µg/m3 0.22 mg/m3 13.98 °C 80.7 % 1,007.18 mbar 2.56 m/s 313.12 Deg 0 µg/m3
2022-01-07 02:00 1.44 µg/m3 0.06 µg/m3 9.95 µg/m3 4.04 µg/m3 0.19 mg/m3 13.77 °C 77.01 % 1,007.31 mbar 2.03 m/s 316.83 Deg 0 µg/m3
2022-01-07 01:00 6.77 µg/m3 0.06 µg/m3 10.62 µg/m3 4.48 µg/m3 0.21 mg/m3 13.73 °C 80.74 % 1,007.61 mbar 2.5 m/s 297.05 Deg 0 µg/m3
2022-01-07 00:00 5.29 µg/m3 0.05 µg/m3 10.23 µg/m3 4.14 µg/m3 0.18 mg/m3 14.29 °C 76.51 % 1,007.87 mbar 2.34 m/s 317.41 Deg 0 µg/m3
2022-01-06 23:00 1.91 µg/m3 0.02 µg/m3 10.14 µg/m3 4.16 µg/m3 0.17 mg/m3 14.36 °C 78.14 % 1,007.82 mbar 2.19 m/s 336.32 Deg 0 µg/m3
2022-01-06 22:00 -0.68 µg/m3 0.01 µg/m3 10.01 µg/m3 4.11 µg/m3 0.15 mg/m3 14.29 °C 81.12 % 1,007.38 mbar 3.77 m/s 347.23 Deg 0 µg/m3
2022-01-06 21:00 2.33 µg/m3 0.06 µg/m3 9.68 µg/m3 3.89 µg/m3 0.15 mg/m3 14.46 °C 82.37 % 1,007.01 mbar 2.92 m/s 264.65 Deg 0 µg/m3
2022-01-06 20:00 4.32 µg/m3 0.09 µg/m3 10.11 µg/m3 4.15 µg/m3 0.14 mg/m3 14.8 °C 79.36 % 1,007.00 mbar 1.48 m/s 246.98 Deg 0 µg/m3
2022-01-06 19:00 7.13 µg/m3 0.12 µg/m3 10.17 µg/m3 4.22 µg/m3 0.16 mg/m3 14.6 °C 81.31 % 1,006.81 mbar 1.02 m/s 303.31 Deg 1.63 µg/m3
2022-01-06 18:00 16.39 µg/m3 0.14 µg/m3 10.96 µg/m3 4.66 µg/m3 0.19 mg/m3 15.24 °C 81.55 % 1,006.49 mbar 1.52 m/s 209.78 Deg 1.09 µg/m3
2022-01-06 17:00 24.57 µg/m3 0.26 µg/m3 12.49 µg/m3 5.34 µg/m3 0.18 mg/m3 15.53 °C 80.09 % 1,006.15 mbar 0.62 m/s 181.58 Deg 1.7 µg/m3
2022-01-06 16:00 13.64 µg/m3 0.22 µg/m3 13.21 µg/m3 5.33 µg/m3 0.19 mg/m3 16.21 °C 76.06 % 1,006.09 mbar 0.49 m/s 218.68 Deg 1.5 µg/m3
2022-01-06 15:00 18.47 µg/m3 0.27 µg/m3 14.11 µg/m3 5.39 µg/m3 0.22 mg/m3 16.03 °C 75.01 % 1,006.27 mbar 0.49 m/s 321.31 Deg 3.64 µg/m3
2022-01-06 14:00 11.84 µg/m3 0.3 µg/m3 15.3 µg/m3 5.77 µg/m3 0.21 mg/m3 16.45 °C 73.87 % 1,006.35 mbar 0.54 m/s 92.04 Deg 2.39 µg/m3
2022-01-06 13:00 12.32 µg/m3 0.34 µg/m3 14.79 µg/m3 5.84 µg/m3 0.21 mg/m3 15.93 °C 77.1 % 1,006.85 mbar 0.47 m/s 171.93 Deg 2.14 µg/m3
2022-01-06 12:00 20.09 µg/m3 0.39 µg/m3 13.64 µg/m3 5.29 µg/m3 0.26 mg/m3 15.7 °C 77.11 % 1,007.66 mbar 0.38 m/s 345.95 Deg 4.31 µg/m3
2022-01-06 11:00 34.87 µg/m3 0.62 µg/m3 12.25 µg/m3 5.06 µg/m3 0.26 mg/m3 15.06 °C 78.84 % 1,008.31 mbar 0.67 m/s 191.24 Deg 9.34 µg/m3
2022-01-06 10:00 114.06 µg/m3 3.23 µg/m3 43.68 µg/m3 22.87 µg/m3 0.86 mg/m3 13.27 °C 87.14 % 1,008.72 mbar 0.82 m/s 193.21 Deg 225.8 µg/m3
2022-01-06 09:00 105.45 µg/m3 3.3 µg/m3 35.99 µg/m3 18.74 µg/m3 0.88 mg/m3 11.81 °C 90.38 % 1,008.58 mbar 1.53 m/s 204.18 Deg 245.8 µg/m3
2022-01-06 08:00 85.86 µg/m3 2.13 µg/m3 30.93 µg/m3 16.88 µg/m3 0.73 mg/m3 11.53 °C 90.41 % 1,008.52 mbar 1.49 m/s 203.95 Deg 152.77 µg/m3
2022-01-06 07:00 69.02 µg/m3 1.3 µg/m3 19.74 µg/m3 10.06 µg/m3 0.53 mg/m3 11.41 °C 90.18 % 1,008.71 mbar 1.9 m/s 197.35 Deg 93.58 µg/m3
2022-01-06 06:00 63.06 µg/m3 0.77 µg/m3 15.4 µg/m3 7.82 µg/m3 0.29 mg/m3 11.67 °C 89.81 % 1,008.45 mbar 1.71 m/s 197.86 Deg 45.07 µg/m3
2022-01-06 05:00 55.07 µg/m3 0.51 µg/m3 16.26 µg/m3 8.44 µg/m3 0.24 mg/m3 11.82 °C 89.43 % 1,008.29 mbar 1.74 m/s 202.56 Deg 21.59 µg/m3
2022-01-06 04:00 60.89 µg/m3 0.63 µg/m3 16.14 µg/m3 8.24 µg/m3 0.31 mg/m3 11.84 °C 89.36 % 1,008.54 mbar 1.34 m/s 192.11 Deg 44.72 µg/m3
2022-01-06 03:00 57.85 µg/m3 0.4 µg/m3 15.39 µg/m3 8.12 µg/m3 0.31 mg/m3 12.19 °C 89.37 % 1,008.86 mbar 1.74 m/s 196.88 Deg 27.84 µg/m3
2022-01-06 02:00 48.44 µg/m3 0.22 µg/m3 14.49 µg/m3 7.31 µg/m3 0.31 mg/m3 12.62 °C 89.38 % 1,009.23 mbar 1.8 m/s 194.26 Deg 7.95 µg/m3
2022-01-06 01:00 58.1 µg/m3 0.35 µg/m3 14.65 µg/m3 7.46 µg/m3 0.33 mg/m3 13.02 °C 89.68 % 1,009.35 mbar 1.99 m/s 202.14 Deg 18.25 µg/m3
2022-01-06 00:00 59.86 µg/m3 0.28 µg/m3 15.22 µg/m3 7.77 µg/m3 0.34 mg/m3 13.6 °C 89.14 % 1,009.64 mbar 1.34 m/s 193.23 Deg 18.02 µg/m3
2022-01-05 23:00 44.49 µg/m3 0.18 µg/m3 14.61 µg/m3 7.29 µg/m3 0.28 mg/m3 13.93 °C 89.12 % 1,009.81 mbar 1.37 m/s 178.4 Deg 4.21 µg/m3
2022-01-05 22:00 54.59 µg/m3 0.18 µg/m3 17.31 µg/m3 9.62 µg/m3 0.28 mg/m3 14.13 °C 89.11 % 1,009.72 mbar 2.74 m/s 198.33 Deg 5.92 µg/m3
2022-01-05 21:00 48.1 µg/m3 0.14 µg/m3 14.71 µg/m3 7.54 µg/m3 0.27 mg/m3 14.69 °C 86.72 % 1,009.62 mbar 2.51 m/s 193.95 Deg 2.36 µg/m3
2022-01-05 20:00 25.99 µg/m3 0.1 µg/m3 13.57 µg/m3 6.8 µg/m3 0.25 mg/m3 15.36 °C 85.15 % 1,009.78 mbar 3.82 m/s 200.02 Deg 0.67 µg/m3
2022-01-05 19:00 37.61 µg/m3 0.26 µg/m3 13.37 µg/m3 6.71 µg/m3 0.23 mg/m3 15.48 °C 84.58 % 1,009.54 mbar 4.61 m/s 195.53 Deg 6.51 µg/m3
2022-01-05 18:00 29.4 µg/m3 0.35 µg/m3 12.52 µg/m3 6.07 µg/m3 0.22 mg/m3 16.02 °C 82.31 % 1,009.23 mbar 5.04 m/s 198.28 Deg 2.31 µg/m3
2022-01-05 17:00 16.81 µg/m3 0.58 µg/m3 12.81 µg/m3 6.14 µg/m3 0.21 mg/m3 16.7 °C 78.34 % 1,009.13 mbar 4.54 m/s 195.58 Deg 1.37 µg/m3
2022-01-05 16:00 13.52 µg/m3 0.57 µg/m3 11.67 µg/m3 5.44 µg/m3 0.2 mg/m3 17.13 °C 75.63 % 1,008.83 mbar 7.97 m/s 194.63 Deg 2.22 µg/m3
2022-01-05 15:00 12.19 µg/m3 0.53 µg/m3 10.7 µg/m3 4.75 µg/m3 0.18 mg/m3 17.27 °C 73.2 % 1,008.70 mbar 9.22 m/s 196.75 Deg 4.44 µg/m3
2022-01-05 14:00 11.54 µg/m3 0.3 µg/m3 10.86 µg/m3 4.73 µg/m3 0.18 mg/m3 17.38 °C 71.5 % 1,009.22 mbar 9.69 m/s 196.64 Deg 6.23 µg/m3
2022-01-05 13:00 7.16 µg/m3 0.12 µg/m3 11.04 µg/m3 4.55 µg/m3 0.18 mg/m3 17.59 °C 69.56 % 1,009.73 mbar 9.16 m/s 195.61 Deg 2.95 µg/m3
2022-01-05 12:00 13.39 µg/m3 0.15 µg/m3 10.49 µg/m3 4.32 µg/m3 0.2 mg/m3 17.39 °C 71.37 % 1,010.49 mbar 8.45 m/s 199.84 Deg 5.51 µg/m3
2022-01-05 11:00 7.32 µg/m3 0.07 µg/m3 9.84 µg/m3 3.99 µg/m3 0.21 mg/m3 17.05 °C 74.35 % 1,011.06 mbar 8.57 m/s 192 Deg 1.92 µg/m3
2022-01-05 10:00 11.42 µg/m3 0.15 µg/m3 9.95 µg/m3 4.1 µg/m3 0.23 mg/m3 16.68 °C 75.65 % 1,011.28 mbar 7.61 m/s 193.12 Deg 2.59 µg/m3
2022-01-05 09:00 18.92 µg/m3 0.17 µg/m3 10.79 µg/m3 4.7 µg/m3 0.25 mg/m3 16.03 °C 79.67 % 1,011.10 mbar 5.87 m/s 190.21 Deg 3.92 µg/m3
2022-01-05 08:00 30.53 µg/m3 0.13 µg/m3 11.25 µg/m3 4.94 µg/m3 0.24 mg/m3 15.54 °C 82.06 % 1,011.09 mbar 4.11 m/s 194.23 Deg 4.28 µg/m3
2022-01-05 07:00 21.84 µg/m3 0.08 µg/m3 11.1 µg/m3 4.9 µg/m3 0.26 mg/m3 15.37 °C 83.57 % 1,011.26 mbar 3.16 m/s 185.46 Deg 0.93 µg/m3
2022-01-05 06:00 13.54 µg/m3 0.02 µg/m3 10.5 µg/m3 4.52 µg/m3 0.23 mg/m3 15.34 °C 84.11 % 1,011.47 mbar 2.81 m/s 180.78 Deg 2.16 µg/m3
2022-01-05 05:00 6.51 µg/m3 0.02 µg/m3 9.94 µg/m3 4.12 µg/m3 0.14 mg/m3 15.43 °C 82.37 % 1,011.70 mbar 3.87 m/s 184.95 Deg 1.32 µg/m3
2022-01-05 04:00 6.16 µg/m3 0.02 µg/m3 10.32 µg/m3 4.43 µg/m3 0.18 mg/m3 15.44 °C 81.09 % 1,012.31 mbar 4.52 m/s 189.46 Deg 0.45 µg/m3
2022-01-05 03:00 19.15 µg/m3 0.02 µg/m3 10.84 µg/m3 4.82 µg/m3 0.19 mg/m3 15.33 °C 85.29 % 1,012.84 mbar 4.14 m/s 199.48 Deg 0.42 µg/m3
2022-01-05 02:00 15.77 µg/m3 0 µg/m3 10.93 µg/m3 4.84 µg/m3 0.19 mg/m3 15.14 °C 86.79 % 1,013.25 mbar 2.62 m/s 186.08 Deg 0.04 µg/m3
2022-01-05 01:00 17.28 µg/m3 0.05 µg/m3 11.22 µg/m3 5.13 µg/m3 0.18 mg/m3 14.9 °C 90 % 1,013.48 mbar 3.52 m/s 195.42 Deg -0.01 µg/m3
2022-01-05 00:00 22.89 µg/m3 0.06 µg/m3 12.05 µg/m3 5.78 µg/m3 0.18 mg/m3 14.83 °C 91.37 % 1,014.00 mbar 2.99 m/s 191.71 Deg 1.03 µg/m3
2022-01-04 23:00 14 µg/m3 0.13 µg/m3 12.41 µg/m3 6.04 µg/m3 0.17 mg/m3 14.84 °C 91.84 % 1,014.52 mbar 2.63 m/s 181.96 Deg 0.64 µg/m3
2022-01-04 22:00 13.12 µg/m3 0.1 µg/m3 12.4 µg/m3 6.01 µg/m3 0.17 mg/m3 14.88 °C 92 % 1,014.73 mbar 2.8 m/s 182.41 Deg 0.7 µg/m3
2022-01-04 21:00 13.73 µg/m3 0.27 µg/m3 13.21 µg/m3 6.62 µg/m3 0.18 mg/m3 15 °C 91.64 % 1,015.03 mbar 3.72 m/s 195.69 Deg 0.32 µg/m3
2022-01-04 20:00 14.24 µg/m3 0.23 µg/m3 14.17 µg/m3 7.26 µg/m3 0.19 mg/m3 15.01 °C 89.52 % 1,015.38 mbar 2.93 m/s 185.48 Deg 1.06 µg/m3
2022-01-04 19:00 21.11 µg/m3 0.16 µg/m3 14.91 µg/m3 7.77 µg/m3 0.22 mg/m3 15.12 °C 87.49 % 1,015.73 mbar 2.52 m/s 181.26 Deg 3.17 µg/m3
2022-01-04 18:00 20.62 µg/m3 0.17 µg/m3 16.2 µg/m3 8.72 µg/m3 0.21 mg/m3 15.44 °C 85.97 % 1,015.88 mbar 3.52 m/s 192.3 Deg 0.86 µg/m3
2022-01-04 17:00 16.83 µg/m3 0.16 µg/m3 16.78 µg/m3 9.31 µg/m3 0.21 mg/m3 15.77 °C 84.88 % 1,016.06 mbar 5.13 m/s 196.56 Deg 1.5 µg/m3
2022-01-04 16:00 11.02 µg/m3 0.41 µg/m3 18.72 µg/m3 10.82 µg/m3 0.22 mg/m3 15.92 °C 83.31 % 1,016.23 mbar 5.63 m/s 195.49 Deg 2.71 µg/m3
2022-01-04 15:00 8.18 µg/m3 0.29 µg/m3 20.55 µg/m3 12.32 µg/m3 0.23 mg/m3 15.68 °C 82.95 % 1,016.60 mbar 6.19 m/s 198.98 Deg 3.21 µg/m3
2022-01-04 14:00 9.69 µg/m3 0.22 µg/m3 22.65 µg/m3 13.91 µg/m3 0.24 mg/m3 15.37 °C 81.81 % 1,017.15 mbar 6.45 m/s 194.96 Deg 3.52 µg/m3
2022-01-04 13:00 9.93 µg/m3 0.08 µg/m3 17.06 µg/m3 9.6 µg/m3 0.23 mg/m3 15.57 °C 79.2 % 1,017.85 mbar 6.14 m/s 199.97 Deg 3.74 µg/m3
2022-01-04 12:00 10.07 µg/m3 0.12 µg/m3 12.5 µg/m3 6.12 µg/m3 0.22 mg/m3 15.46 °C 77.87 % 1,018.48 mbar 5.07 m/s 203.72 Deg 6.84 µg/m3
2022-01-04 11:00 8.24 µg/m3 0.05 µg/m3 10.36 µg/m3 4.45 µg/m3 0.21 mg/m3 15.01 °C 79.34 % 1,019.05 mbar 4.34 m/s 224.08 Deg 2.91 µg/m3
2022-01-04 10:00 12.3 µg/m3 0.05 µg/m3 10.89 µg/m3 4.62 µg/m3 0.21 mg/m3 14.52 °C 80.13 % 1,019.24 mbar 3.43 m/s 239.96 Deg 4.54 µg/m3
2022-01-04 09:00 22.42 µg/m3 0.03 µg/m3 12 µg/m3 5.16 µg/m3 0.24 mg/m3 14.17 °C 81.55 % 1,019.15 mbar 2.77 m/s 219.37 Deg 2.03 µg/m3
2022-01-04 08:00 23.12 µg/m3 0.02 µg/m3 10.52 µg/m3 4.41 µg/m3 0.23 mg/m3 13.99 °C 81.71 % 1,018.82 mbar 2.45 m/s 227.43 Deg 3.39 µg/m3
2022-01-04 07:00 13 µg/m3 -0 µg/m3 9.83 µg/m3 4.05 µg/m3 0.21 mg/m3 14.06 °C 80.99 % 1,018.75 mbar 2.69 m/s 226.48 Deg 0.9 µg/m3
2022-01-04 06:00 7.36 µg/m3 -0.03 µg/m3 9.47 µg/m3 3.81 µg/m3 0.18 mg/m3 14.17 °C 80.33 % 1,018.84 mbar 2.93 m/s 234.49 Deg 0.36 µg/m3
2022-01-04 05:00 1.54 µg/m3 -0.02 µg/m3 9.14 µg/m3 3.56 µg/m3 0.12 mg/m3 14.06 °C 80.4 % 1,018.87 mbar 2.89 m/s 257.81 Deg 0.2 µg/m3
2022-01-04 04:00 -0.16 µg/m3 -0.04 µg/m3 8.99 µg/m3 3.47 µg/m3 0.18 mg/m3 13.9 °C 82.9 % 1,019.29 mbar 3.16 m/s 260.99 Deg 0.11 µg/m3
2022-01-04 03:00 3.67 µg/m3 -0.02 µg/m3 9.14 µg/m3 3.58 µg/m3 0.19 mg/m3 13.96 °C 83.03 % 1,019.53 mbar 2.96 m/s 242.2 Deg -0.13 µg/m3
2022-01-04 02:00 -0.48 µg/m3 -0.02 µg/m3 9 µg/m3 3.47 µg/m3 0.19 mg/m3 13.98 °C 83.48 % 1,019.65 mbar 2.84 m/s 224.35 Deg 0.16 µg/m3
2022-01-04 01:00 -1.21 µg/m3 -0 µg/m3 8.91 µg/m3 3.4 µg/m3 0.19 mg/m3 13.95 °C 83.32 % 1,019.84 mbar 2.74 m/s 255.08 Deg -0.03 µg/m3
2022-01-04 00:00 0.65 µg/m3 -0.02 µg/m3 9.28 µg/m3 3.64 µg/m3 0.19 mg/m3 14.07 °C 84.29 % 1,019.98 mbar 2.54 m/s 262.38 Deg 0.35 µg/m3
2022-01-03 23:00 3.74 µg/m3 -0.02 µg/m3 9.03 µg/m3 3.51 µg/m3 0.19 mg/m3 14.15 °C 83.34 % 1,020.12 mbar 3.3 m/s 248.6 Deg 0.94 µg/m3
2022-01-03 22:00 1.67 µg/m3 -0.01 µg/m3 9.12 µg/m3 3.51 µg/m3 0.19 mg/m3 14.24 °C 83.14 % 1,020.27 mbar 3.04 m/s 268.91 Deg 0.34 µg/m3
2022-01-03 21:00 2.22 µg/m3 -0.02 µg/m3 8.96 µg/m3 3.43 µg/m3 0.19 mg/m3 14.21 °C 83.38 % 1,020.05 mbar 3.81 m/s 261.57 Deg 0.14 µg/m3
2022-01-03 20:00 5.22 µg/m3 0 µg/m3 9.4 µg/m3 3.72 µg/m3 0.22 mg/m3 14.34 °C 82.97 % 1,019.91 mbar 2.83 m/s 246.49 Deg 0.89 µg/m3
2022-01-03 19:00 5.09 µg/m3 -0.02 µg/m3 9.16 µg/m3 3.59 µg/m3 0.19 mg/m3 14.27 °C 81.42 % 1,019.92 mbar 4.67 m/s 272.46 Deg 0.54 µg/m3
2022-01-03 18:00 8.29 µg/m3 -0.01 µg/m3 10.18 µg/m3 4.4 µg/m3 0.21 mg/m3 14.32 °C 82.13 % 1,019.89 mbar 5.37 m/s 269.28 Deg 0.86 µg/m3
2022-01-03 17:00 8.66 µg/m3 0.01 µg/m3 10.75 µg/m3 4.79 µg/m3 0.21 mg/m3 14.49 °C 80.74 % 1,019.88 mbar 4.89 m/s 265.01 Deg 1.25 µg/m3
2022-01-03 16:00 9.53 µg/m3 0.04 µg/m3 10.91 µg/m3 4.81 µg/m3 0.2 mg/m3 14.74 °C 79.62 % 1,019.97 mbar 5.29 m/s 265.91 Deg 3.97 µg/m3
2022-01-03 15:00 7.31 µg/m3 0.02 µg/m3 11.71 µg/m3 5.42 µg/m3 0.19 mg/m3 14.89 °C 79.14 % 1,020.24 mbar 5.55 m/s 266.61 Deg 2.13 µg/m3
2022-01-03 14:00 8.57 µg/m3 0.05 µg/m3 12.49 µg/m3 5.95 µg/m3 0.2 mg/m3 14.77 °C 78.85 % 1,020.64 mbar 4.98 m/s 256.73 Deg 2.03 µg/m3
2022-01-03 13:00 5.45 µg/m3 0.02 µg/m3 11.4 µg/m3 5.23 µg/m3 0.19 mg/m3 14.72 °C 78.56 % 1,021.17 mbar 5.62 m/s 265.86 Deg 1.36 µg/m3
2022-01-03 12:00 6.5 µg/m3 0.03 µg/m3 11.5 µg/m3 5.29 µg/m3 0.19 mg/m3 14.46 °C 78.55 % 1,021.94 mbar 4.96 m/s 245.43 Deg 3.33 µg/m3
2022-01-03 11:00 6.72 µg/m3 0.02 µg/m3 10.89 µg/m3 4.73 µg/m3 0.2 mg/m3 14.3 °C 80.08 % 1,022.34 mbar 4.71 m/s 260.7 Deg 1.45 µg/m3
2022-01-03 10:00 8.58 µg/m3 0.03 µg/m3 9.56 µg/m3 3.75 µg/m3 0.2 mg/m3 14.21 °C 80.16 % 1,022.10 mbar 4.85 m/s 253.09 Deg 2.56 µg/m3
2022-01-03 09:00 11.04 µg/m3 0.06 µg/m3 9.7 µg/m3 3.84 µg/m3 0.2 mg/m3 14.03 °C 80.46 % 1,021.76 mbar 4.33 m/s 265.89 Deg 1.5 µg/m3
2022-01-03 08:00 18.47 µg/m3 0.18 µg/m3 9.72 µg/m3 3.96 µg/m3 0.21 mg/m3 13.93 °C 82.23 % 1,021.59 mbar 3.33 m/s 240.21 Deg 5.08 µg/m3
2022-01-03 07:00 7.89 µg/m3 -0.01 µg/m3 8.77 µg/m3 3.34 µg/m3 0.2 mg/m3 13.89 °C 82.59 % 1,021.63 mbar 4.18 m/s 261.01 Deg 1.75 µg/m3
2022-01-03 06:00 4.81 µg/m3 0.01 µg/m3 8.86 µg/m3 3.41 µg/m3 0.18 mg/m3 13.94 °C 83.57 % 1,021.55 mbar 3.64 m/s 255.1 Deg 0.04 µg/m3
2022-01-03 05:00 3.01 µg/m3 0.01 µg/m3 9.05 µg/m3 3.56 µg/m3 0.14 mg/m3 14.02 °C 83.34 % 1,021.68 mbar 3.68 m/s 230.55 Deg 0.13 µg/m3
2022-01-03 04:00 3.88 µg/m3 0.06 µg/m3 9.97 µg/m3 4.25 µg/m3 0.23 mg/m3 14.16 °C 84.35 % 1,022.07 mbar 2.94 m/s 238.78 Deg 0.23 µg/m3
2022-01-03 03:00 12.41 µg/m3 0.11 µg/m3 11.31 µg/m3 5.22 µg/m3 0.24 mg/m3 13.92 °C 87.5 % 1,022.31 mbar 2.65 m/s 216.99 Deg 0.08 µg/m3
2022-01-03 02:00 33.48 µg/m3 0.16 µg/m3 12.44 µg/m3 6.08 µg/m3 0.27 mg/m3 13.45 °C 89.86 % 1,022.50 mbar 2.19 m/s 200.18 Deg 1.92 µg/m3
2022-01-03 01:00 57.53 µg/m3 0.48 µg/m3 15.38 µg/m3 8.4 µg/m3 0.35 mg/m3 12.92 °C 92.31 % 1,022.93 mbar 1.66 m/s 197.21 Deg 28.82 µg/m3
2022-01-03 00:00 50.4 µg/m3 0.36 µg/m3 17.24 µg/m3 9.83 µg/m3 0.33 mg/m3 12.91 °C 93.26 % 1,023.33 mbar 1.21 m/s 183.78 Deg 16.1 µg/m3
2022-01-02 23:00 52.45 µg/m3 0.38 µg/m3 18.7 µg/m3 10.95 µg/m3 0.39 mg/m3 13.14 °C 93.52 % 1,023.65 mbar 1.41 m/s 195.09 Deg 17.94 µg/m3
2022-01-02 22:00 50.74 µg/m3 0.34 µg/m3 18.91 µg/m3 11.07 µg/m3 0.34 mg/m3 13.59 °C 92.69 % 1,023.63 mbar 1.13 m/s 193.75 Deg 20.19 µg/m3
2022-01-02 21:00 46.84 µg/m3 0.24 µg/m3 17.12 µg/m3 9.63 µg/m3 0.32 mg/m3 13.84 °C 92.41 % 1,023.71 mbar 1.25 m/s 195.82 Deg 11.14 µg/m3
2022-01-02 20:00 43.5 µg/m3 0.17 µg/m3 15.27 µg/m3 8.18 µg/m3 0.33 mg/m3 14.18 °C 91.07 % 1,023.59 mbar 2.03 m/s 196.12 Deg 4.72 µg/m3
2022-01-02 19:00 30.48 µg/m3 0.15 µg/m3 12.27 µg/m3 5.87 µg/m3 0.3 mg/m3 14.75 °C 89.41 % 1,023.56 mbar 2.09 m/s 204.58 Deg 5.95 µg/m3
2022-01-02 18:00 12.5 µg/m3 0.11 µg/m3 10.61 µg/m3 4.62 µg/m3 0.21 mg/m3 15.37 °C 85.6 % 1,023.64 mbar 2.4 m/s 233.88 Deg 2.5 µg/m3
2022-01-02 17:00 17.08 µg/m3 0.23 µg/m3 11.2 µg/m3 4.81 µg/m3 0.24 mg/m3 16.48 °C 77.45 % 1,023.29 mbar 2.14 m/s 271.94 Deg 7.15 µg/m3
2022-01-02 16:00 7.67 µg/m3 0.23 µg/m3 10.95 µg/m3 4.8 µg/m3 0.26 mg/m3 17.44 °C 70.51 % 1,023.07 mbar 3.03 m/s 244.9 Deg 1.48 µg/m3
2022-01-02 15:00 22.28 µg/m3 0.25 µg/m3 13.44 µg/m3 5.98 µg/m3 0.33 mg/m3 17.46 °C 75.45 % 1,023.11 mbar 1.11 m/s 142.84 Deg 5.72 µg/m3
2022-01-02 14:00 24.85 µg/m3 0.34 µg/m3 13.73 µg/m3 6.38 µg/m3 0.31 mg/m3 16.77 °C 79.48 % 1,023.34 mbar 1.03 m/s 47.31 Deg 7.59 µg/m3
2022-01-02 13:00 18.14 µg/m3 0.44 µg/m3 15.14 µg/m3 7.18 µg/m3 0.35 mg/m3 17.4 °C 72.58 % 1,023.84 mbar 0.63 m/s 222.44 Deg 4.56 µg/m3
2022-01-02 12:00 36.17 µg/m3 0.49 µg/m3 15.17 µg/m3 7.22 µg/m3 0.33 mg/m3 17.4 °C 70.76 % 1,024.34 mbar 0.54 m/s 258.52 Deg 13.15 µg/m3
2022-01-02 11:00 34.09 µg/m3 0.41 µg/m3 16.07 µg/m3 8.26 µg/m3 0.48 mg/m3 15.9 °C 77.73 % 1,024.69 mbar 0.78 m/s 200.22 Deg 13.62 µg/m3
2022-01-02 10:00 39.98 µg/m3 0.51 µg/m3 18.94 µg/m3 10.66 µg/m3 0.49 mg/m3 13.67 °C 88.92 % 1,024.67 mbar 1.42 m/s 187.76 Deg 35.38 µg/m3
2022-01-02 09:00 35.06 µg/m3 0.42 µg/m3 18.08 µg/m3 9.85 µg/m3 0.47 mg/m3 11.67 °C 94.35 % 1,024.20 mbar 2.16 m/s 197.4 Deg 23.6 µg/m3
2022-01-02 08:00 36.61 µg/m3 0.35 µg/m3 13.26 µg/m3 6.77 µg/m3 0.38 mg/m3 11.39 °C 95.66 % 1,023.80 mbar 2.2 m/s 199.01 Deg 22.81 µg/m3
2022-01-02 07:00 36.02 µg/m3 0.23 µg/m3 11.95 µg/m3 5.79 µg/m3 0.29 mg/m3 11.87 °C 95.89 % 1,023.30 mbar 1.87 m/s 201.9 Deg 14.24 µg/m3
2022-01-02 06:00 26.65 µg/m3 0.18 µg/m3 11.57 µg/m3 5.48 µg/m3 0.24 mg/m3 12.27 °C 95.81 % 1,022.81 mbar 1.85 m/s 202.33 Deg 6.07 µg/m3
2022-01-02 05:00 27.38 µg/m3 0.09 µg/m3 11.67 µg/m3 5.52 µg/m3 0.17 mg/m3 12.83 °C 94.73 % 1,022.66 mbar 1.54 m/s 196.57 Deg 2.11 µg/m3
2022-01-02 04:00 23.71 µg/m3 0.07 µg/m3 12.01 µg/m3 5.69 µg/m3 0.18 mg/m3 13.53 °C 93.33 % 1,022.66 mbar 1.13 m/s 187.87 Deg 3.2 µg/m3
2022-01-02 03:00 21.56 µg/m3 0.05 µg/m3 12 µg/m3 5.72 µg/m3 0.16 mg/m3 14.1 °C 92.25 % 1,022.68 mbar 1.61 m/s 227.26 Deg 1.97 µg/m3
2022-01-02 02:00 7.55 µg/m3 0.03 µg/m3 12.34 µg/m3 5.89 µg/m3 0.15 mg/m3 14.65 °C 90.3 % 1,022.68 mbar 1.57 m/s 266.03 Deg 0.01 µg/m3
2022-01-02 01:00 8.76 µg/m3 0.01 µg/m3 12.54 µg/m3 5.99 µg/m3 0.15 mg/m3 15.08 °C 87.86 % 1,022.67 mbar 1.6 m/s 285.84 Deg 0.2 µg/m3
2022-01-02 00:00 4.09 µg/m3 -0.02 µg/m3 13.81 µg/m3 6.89 µg/m3 0.15 mg/m3 15.24 °C 88.19 % 1,022.83 mbar 1.72 m/s 339.73 Deg -0.01 µg/m3
2022-01-01 23:00 1.62 µg/m3 0.02 µg/m3 15.93 µg/m3 8.52 µg/m3 0.15 mg/m3 15.24 °C 89.11 % 1,022.76 mbar 1.73 m/s 315.13 Deg 0.4 µg/m3
2022-01-01 22:00 0.94 µg/m3 0.1 µg/m3 20.62 µg/m3 12.22 µg/m3 0.15 mg/m3 15.07 °C 89.78 % 1,022.75 mbar 2.07 m/s 308.31 Deg 0.13 µg/m3
2022-01-01 21:00 6.84 µg/m3 0.05 µg/m3 21.79 µg/m3 13.17 µg/m3 0.16 mg/m3 14.86 °C 90.17 % 1,022.64 mbar 2.43 m/s 273.37 Deg 0.23 µg/m3
2022-01-01 20:00 9.92 µg/m3 -0.01 µg/m3 16.48 µg/m3 9.16 µg/m3 0.15 mg/m3 14.98 °C 89.24 % 1,022.29 mbar 2.83 m/s 259.78 Deg 0.43 µg/m3
2022-01-01 19:00 10.41 µg/m3 0.09 µg/m3 12.22 µg/m3 5.84 µg/m3 0.15 mg/m3 15.03 °C 88.9 % 1,022.00 mbar 2.05 m/s 281.3 Deg 1.39 µg/m3
2022-01-01 18:00 6.86 µg/m3 0.01 µg/m3 12.97 µg/m3 6.38 µg/m3 0.14 mg/m3 15.17 °C 88.03 % 1,021.52 mbar 2.17 m/s 267.68 Deg 0.58 µg/m3
2022-01-01 17:00 7.31 µg/m3 0.04 µg/m3 12.31 µg/m3 5.91 µg/m3 0.15 mg/m3 15.68 °C 85.72 % 1,021.43 mbar 3.48 m/s 264.33 Deg 2.4 µg/m3
2022-01-01 16:00 3.09 µg/m3 0.03 µg/m3 11 µg/m3 4.95 µg/m3 0.14 mg/m3 16.1 °C 82.95 % 1,021.40 mbar 4.4 m/s 266.24 Deg 0.86 µg/m3
2022-01-01 15:00 6.82 µg/m3 0.07 µg/m3 11.3 µg/m3 5.14 µg/m3 0.15 mg/m3 16.42 °C 81.77 % 1,021.46 mbar 4.08 m/s 266.5 Deg 2.13 µg/m3
2022-01-01 14:00 4.32 µg/m3 0.07 µg/m3 11.39 µg/m3 5.11 µg/m3 0.15 mg/m3 16.68 °C 80.64 % 1,021.55 mbar 3.65 m/s 258.12 Deg 1.89 µg/m3
2022-01-01 13:00 5.88 µg/m3 0.08 µg/m3 11.82 µg/m3 5.34 µg/m3 0.17 mg/m3 16.72 °C 82.08 % 1,022.15 mbar 3.54 m/s 262.04 Deg 1.54 µg/m3
2022-01-01 12:00 6.75 µg/m3 0.08 µg/m3 11.21 µg/m3 5.08 µg/m3 0.23 mg/m3 16.59 °C 82.93 % 1,022.75 mbar 4.26 m/s 264.28 Deg 2.91 µg/m3
2022-01-01 11:00 5.01 µg/m3 0.08 µg/m3 11.88 µg/m3 5.6 µg/m3 0.24 mg/m3 16.19 °C 84.89 % 1,023.20 mbar 3.15 m/s 257.43 Deg 1.54 µg/m3
2022-01-01 10:00 11.46 µg/m3 0.12 µg/m3 12.36 µg/m3 6.05 µg/m3 0.26 mg/m3 15.18 °C 91.37 % 1,023.19 mbar 3.44 m/s 240.53 Deg 3.1 µg/m3
2022-01-01 09:00 34.89 µg/m3 0.26 µg/m3 15.08 µg/m3 8.13 µg/m3 0.32 mg/m3 14 °C 94.88 % 1,022.80 mbar 2.53 m/s 205.97 Deg 10.55 µg/m3
2022-01-01 08:00 28.07 µg/m3 0.16 µg/m3 13.25 µg/m3 6.75 µg/m3 0.27 mg/m3 13.83 °C 94.96 % 1,022.60 mbar 1.61 m/s 226.93 Deg 3.25 µg/m3
2022-01-01 07:00 40.1 µg/m3 0.29 µg/m3 14.2 µg/m3 7.46 µg/m3 0.29 mg/m3 13.02 °C 95.37 % 1,022.41 mbar 1.22 m/s 184.06 Deg 9.81 µg/m3
2022-01-01 06:00 45.61 µg/m3 0.36 µg/m3 15.33 µg/m3 8.33 µg/m3 0.3 mg/m3 12.67 °C 94.84 % 1,022.31 mbar 1.28 m/s 183.45 Deg 16.59 µg/m3
2022-01-01 05:00 49.06 µg/m3 0.42 µg/m3 15.53 µg/m3 8.49 µg/m3 0.25 mg/m3 12.83 °C 92.38 % 1,022.40 mbar 1.28 m/s 196.92 Deg 16.79 µg/m3
2022-01-01 04:00 42.04 µg/m3 0.32 µg/m3 14.81 µg/m3 7.93 µg/m3 0.4 mg/m3 13.31 °C 89.07 % 1,022.66 mbar 1.93 m/s 203.37 Deg 9.9 µg/m3
2022-01-01 03:00 58.7 µg/m3 0.63 µg/m3 15.73 µg/m3 8.51 µg/m3 0.52 mg/m3 12.32 °C 82.77 % 1,023.08 mbar 1.78 m/s 188.78 Deg 31.68 µg/m3
2022-01-01 02:00 54.05 µg/m3 0.59 µg/m3 17.08 µg/m3 9.48 µg/m3 0.83 mg/m3 11.44 °C 81.62 % 1,023.07 mbar 1.26 m/s 190.52 Deg 25.73 µg/m3
2022-01-01 01:00 49.43 µg/m3 0.51 µg/m3 18.03 µg/m3 10.26 µg/m3 0.57 mg/m3 11.57 °C 83.01 % 1,023.17 mbar 2.31 m/s 199.94 Deg 18.88 µg/m3
2022-01-01 00:00 51.6 µg/m3 0.37 µg/m3 17.7 µg/m3 10.02 µg/m3 0.49 mg/m3 12.38 °C 78.95 % 1,023.33 mbar 1.78 m/s 199.47 Deg 8.29 µg/m3
2021-12-31 23:00 59 µg/m3 0.48 µg/m3 18.44 µg/m3 10.44 µg/m3 0.53 mg/m3 12.28 °C 72.69 % 1,023.56 mbar 1.88 m/s 198.76 Deg 17.65 µg/m3
2021-12-31 22:00 59.49 µg/m3 0.5 µg/m3 21.89 µg/m3 13.01 µg/m3 0.55 mg/m3 12.43 °C 72.58 % 1,023.61 mbar 2.11 m/s 198.46 Deg 21.39 µg/m3
2021-12-31 21:00 61.6 µg/m3 0.41 µg/m3 24.62 µg/m3 14.98 µg/m3 0.54 mg/m3 12.98 °C 74.86 % 1,023.48 mbar 2.04 m/s 198.61 Deg 17.41 µg/m3
2021-12-31 20:00 64 µg/m3 0.35 µg/m3 20.97 µg/m3 12.21 µg/m3 0.51 mg/m3 13.77 °C 79.37 % 1,023.24 mbar 2.02 m/s 195.55 Deg 17.72 µg/m3
2021-12-31 19:00 59.14 µg/m3 0.21 µg/m3 17.1 µg/m3 9.22 µg/m3 0.45 mg/m3 14.73 °C 80.37 % 1,023.09 mbar 1.82 m/s 208.38 Deg 5.43 µg/m3
2021-12-31 18:00 32.04 µg/m3 0.1 µg/m3 11.18 µg/m3 4.85 µg/m3 0.28 mg/m3 15.75 °C 76.56 % 1,022.52 mbar 1.22 m/s 284.63 Deg 3.29 µg/m3
2021-12-31 17:00 19.51 µg/m3 0.15 µg/m3 11.08 µg/m3 4.42 µg/m3 0.26 mg/m3 16.47 °C 71.91 % 1,022.02 mbar 1.08 m/s 317.38 Deg 2.98 µg/m3
2021-12-31 16:00 9.55 µg/m3 0.14 µg/m3 10.75 µg/m3 4.06 µg/m3 0.31 mg/m3 16.93 °C 68.94 % 1,021.58 mbar 1.43 m/s 340.24 Deg 2.12 µg/m3
2021-12-31 15:00 9.28 µg/m3 0.13 µg/m3 10.54 µg/m3 4.04 µg/m3 0.29 mg/m3 16.84 °C 67.99 % 1,021.35 mbar 1.83 m/s 346.89 Deg 1.83 µg/m3
2021-12-31 14:00 5.32 µg/m3 0.16 µg/m3 10.74 µg/m3 4.1 µg/m3 0.27 mg/m3 17.04 °C 62.49 % 1,021.36 mbar 1.62 m/s 342.53 Deg 1.27 µg/m3
2021-12-31 13:00 13.57 µg/m3 0.28 µg/m3 12.58 µg/m3 5.15 µg/m3 0.29 mg/m3 17.25 °C 67.48 % 1,021.60 mbar 1.7 m/s 323.18 Deg 3.92 µg/m3
2021-12-31 12:00 12.74 µg/m3 0.38 µg/m3 11.37 µg/m3 4.72 µg/m3 0.28 mg/m3 16.98 °C 64.58 % 1,021.90 mbar 2.03 m/s 277.17 Deg 6.3 µg/m3
2021-12-31 11:00 15.45 µg/m3 0.3 µg/m3 11.61 µg/m3 5.16 µg/m3 0.27 mg/m3 15.96 °C 73.5 % 1,021.93 mbar 2.65 m/s 249.85 Deg 4.05 µg/m3
2021-12-31 10:00 67.06 µg/m3 1.01 µg/m3 22.47 µg/m3 12.19 µg/m3 0.63 mg/m3 13.96 °C 84.52 % 1,021.53 mbar 1.97 m/s 198.94 Deg 67.29 µg/m3
2021-12-31 09:00 61.43 µg/m3 1 µg/m3 21.48 µg/m3 11.26 µg/m3 0.67 mg/m3 11.55 °C 88.17 % 1,020.98 mbar 2.21 m/s 196.4 Deg 70.7 µg/m3
2021-12-31 08:00 52.72 µg/m3 0.82 µg/m3 22.63 µg/m3 10.93 µg/m3 0.46 mg/m3 10.93 °C 89.6 % 1,020.30 mbar 2.44 m/s 205.23 Deg 55.03 µg/m3
2021-12-31 07:00 52.17 µg/m3 0.82 µg/m3 20.73 µg/m3 10.58 µg/m3 0.42 mg/m3 11.01 °C 91.59 % 1,019.55 mbar 2.33 m/s 202.33 Deg 61.36 µg/m3
2021-12-31 06:00 42.31 µg/m3 0.5 µg/m3 19.04 µg/m3 10 µg/m3 0.32 mg/m3 11.32 °C 91.92 % 1,018.84 mbar 2.2 m/s 201.45 Deg 34.75 µg/m3
2021-12-31 05:00 48.2 µg/m3 0.58 µg/m3 16.28 µg/m3 8.62 µg/m3 0.23 mg/m3 11.82 °C 91.58 % 1,018.52 mbar 1.69 m/s 198 Deg 44.57 µg/m3
2021-12-31 04:00 45.37 µg/m3 0.38 µg/m3 18.83 µg/m3 9.45 µg/m3 0.35 mg/m3 12.35 °C 90.38 % 1,018.50 mbar 1.73 m/s 197.02 Deg 22.71 µg/m3
2021-12-31 03:00 55.65 µg/m3 0.38 µg/m3 18.09 µg/m3 8.91 µg/m3 0.32 mg/m3 13.69 °C 85.72 % 1,018.44 mbar 1.38 m/s 223.49 Deg 26.63 µg/m3
2021-12-31 02:00 22.16 µg/m3 0.12 µg/m3 11.32 µg/m3 4.97 µg/m3 0.23 mg/m3 15.31 °C 79.2 % 1,018.18 mbar 1.04 m/s 236.2 Deg 1.06 µg/m3
2021-12-31 01:00 32.55 µg/m3 0.13 µg/m3 11.73 µg/m3 5.35 µg/m3 0.21 mg/m3 15.4 °C 80.11 % 1,017.80 mbar 1.21 m/s 192.59 Deg 2.64 µg/m3
2021-12-31 00:00 46.68 µg/m3 0.23 µg/m3 11.88 µg/m3 5.41 µg/m3 0.22 mg/m3 15.11 °C 81.42 % 1,017.64 mbar 0.68 m/s 178.9 Deg 8.15 µg/m3
2021-12-30 23:00 59.54 µg/m3 0.82 µg/m3 19.45 µg/m3 10.52 µg/m3 0.58 mg/m3 14.03 °C 94.45 % 1,017.19 mbar 0.6 m/s 216.26 Deg 56.14 µg/m3
2021-12-30 22:00 79.61 µg/m3 0.78 µg/m3 17.73 µg/m3 9.48 µg/m3 0.56 mg/m3 14.59 °C 94.16 % 1,016.70 mbar 0.38 m/s 202.9 Deg 65.44 µg/m3
2021-12-30 21:00 51.65 µg/m3 0.15 µg/m3 15.08 µg/m3 7.65 µg/m3 0.35 mg/m3 15.33 °C 92.87 % 1,016.02 mbar 0.22 m/s 220.47 Deg 10.12 µg/m3
2021-12-30 20:00 33.12 µg/m3 0.02 µg/m3 13.95 µg/m3 6.67 µg/m3 0.27 mg/m3 15.68 °C 90.32 % 1,015.56 mbar 0.5 m/s 103.9 Deg 2.19 µg/m3
2021-12-30 19:00 36.27 µg/m3 0.07 µg/m3 13.66 µg/m3 6.53 µg/m3 0.36 mg/m3 15.84 °C 89.26 % 1,015.04 mbar 0.64 m/s 282.68 Deg 6.37 µg/m3
2021-12-30 18:00 29.65 µg/m3 0.19 µg/m3 12.76 µg/m3 5.9 µg/m3 0.28 mg/m3 16.05 °C 85.64 % 1,014.33 mbar 1.18 m/s 297.13 Deg 23.15 µg/m3
2021-12-30 17:00 15.26 µg/m3 0 µg/m3 12.37 µg/m3 5.31 µg/m3 0.26 mg/m3 16.61 °C 82.15 % 1,013.93 mbar 1.18 m/s 248.25 Deg 3.9 µg/m3
2021-12-30 16:00 10.36 µg/m3 -0.02 µg/m3 13.22 µg/m3 5.57 µg/m3 0.28 mg/m3 17.02 °C 81.5 % 1,013.38 mbar 1.02 m/s 348.72 Deg 3.01 µg/m3
2021-12-30 15:00 4.68 µg/m3 -0.03 µg/m3 13.46 µg/m3 5.89 µg/m3 0.26 mg/m3 16.72 °C 84.29 % 1,013.14 mbar 1.85 m/s 341.83 Deg 1.37 µg/m3
2021-12-30 14:00 4.21 µg/m3 -0.07 µg/m3 13.32 µg/m3 6.07 µg/m3 0.25 mg/m3 16.82 °C 84.11 % 1,013.00 mbar 2.54 m/s 315.07 Deg 1.22 µg/m3
2021-12-30 13:00 3.13 µg/m3 -0.06 µg/m3 13.11 µg/m3 5.94 µg/m3 0.22 mg/m3 16.76 °C 84.61 % 1,012.98 mbar 3.09 m/s 301.28 Deg 1.7 µg/m3
2021-12-30 12:00 6.03 µg/m3 -0.01 µg/m3 13.38 µg/m3 6.15 µg/m3 0.22 mg/m3 16.66 °C 85.55 % 1,013.14 mbar 2.83 m/s 287.78 Deg 3.97 µg/m3
2021-12-30 11:00 4.17 µg/m3 -0.03 µg/m3 12.54 µg/m3 5.67 µg/m3 0.2 mg/m3 16.51 °C 87.1 % 1,013.48 mbar 2.72 m/s 312.18 Deg 2.1 µg/m3
2021-12-30 10:00 10.92 µg/m3 0.01 µg/m3 12.84 µg/m3 6.02 µg/m3 0.2 mg/m3 16.25 °C 89.34 % 1,013.12 mbar 2.75 m/s 295.98 Deg 5.96 µg/m3
2021-12-30 09:00 14.11 µg/m3 0.11 µg/m3 13.12 µg/m3 6.33 µg/m3 0.22 mg/m3 15.92 °C 90.52 % 1,012.36 mbar 2.81 m/s 282.19 Deg 16.85 µg/m3
2021-12-30 08:00 13.65 µg/m3 -0.02 µg/m3 12.95 µg/m3 6.24 µg/m3 0.19 mg/m3 15.78 °C 90.61 % 1,011.82 mbar 2.9 m/s 276.42 Deg 3.41 µg/m3
2021-12-30 07:00 8.25 µg/m3 -0.06 µg/m3 12.51 µg/m3 5.98 µg/m3 0.18 mg/m3 15.79 °C 89.4 % 1,011.16 mbar 3.58 m/s 276.51 Deg 1.67 µg/m3
2021-12-30 06:00 7.6 µg/m3 -0.04 µg/m3 12.55 µg/m3 5.99 µg/m3 0.17 mg/m3 15.9 °C 88.33 % 1,010.95 mbar 3.61 m/s 274.29 Deg 2.1 µg/m3
2021-12-30 05:00 1.82 µg/m3 -0.05 µg/m3 12.45 µg/m3 5.84 µg/m3 0.12 mg/m3 16.07 °C 87.61 % 1,010.98 mbar 3.42 m/s 278.38 Deg 0.4 µg/m3
2021-12-30 04:00 2.26 µg/m3 -0.08 µg/m3 11.92 µg/m3 5.51 µg/m3 0.17 mg/m3 16.05 °C 87.5 % 1,010.99 mbar 3.63 m/s 275.99 Deg 0.15 µg/m3
2021-12-30 03:00 4.19 µg/m3 -0.06 µg/m3 12.35 µg/m3 5.75 µg/m3 0.17 mg/m3 16.08 °C 87.48 % 1,011.18 mbar 3.33 m/s 282.09 Deg 0.06 µg/m3
2021-12-30 02:00 0.92 µg/m3 -0.1 µg/m3 12.37 µg/m3 5.77 µg/m3 0.17 mg/m3 16.06 °C 87.58 % 1,011.26 mbar 3.38 m/s 275.54 Deg 0.13 µg/m3
2021-12-30 01:00 0.77 µg/m3 -0.06 µg/m3 12.08 µg/m3 5.59 µg/m3 0.17 mg/m3 16.08 °C 86.87 % 1,010.99 mbar 3.76 m/s 283.14 Deg -0.03 µg/m3
2021-12-30 00:00 0.76 µg/m3 -0.02 µg/m3 12.11 µg/m3 5.58 µg/m3 0.17 mg/m3 16.27 °C 85.32 % 1,011.12 mbar 4.11 m/s 285.82 Deg 0.34 µg/m3
2021-12-29 23:00 1.4 µg/m3 -0.06 µg/m3 12.15 µg/m3 5.61 µg/m3 0.17 mg/m3 16.35 °C 84.13 % 1,011.19 mbar 4.42 m/s 280.94 Deg 0.44 µg/m3
2021-12-29 22:00 2.01 µg/m3 -0.07 µg/m3 11.88 µg/m3 5.51 µg/m3 0.17 mg/m3 16.46 °C 82.81 % 1,011.30 mbar 4.76 m/s 266.97 Deg 0.19 µg/m3
2021-12-29 21:00 3.62 µg/m3 -0.08 µg/m3 11.42 µg/m3 5.32 µg/m3 0.17 mg/m3 16.49 °C 82.51 % 1,011.02 mbar 6.15 m/s 260.33 Deg 1.11 µg/m3
2021-12-29 20:00 3.19 µg/m3 -0.04 µg/m3 12.05 µg/m3 5.78 µg/m3 0.19 mg/m3 16.42 °C 82.73 % 1,010.76 mbar 5.61 m/s 257.65 Deg 0.01 µg/m3
2021-12-29 19:00 3.42 µg/m3 -0.07 µg/m3 11.68 µg/m3 5.51 µg/m3 0.16 mg/m3 16.53 °C 80.92 % 1,010.58 mbar 6.78 m/s 255.66 Deg 0.19 µg/m3
2021-12-29 18:00 6.08 µg/m3 -0.05 µg/m3 12.29 µg/m3 5.87 µg/m3 0.17 mg/m3 16.56 °C 81.59 % 1,010.91 mbar 5.67 m/s 261.63 Deg 2.04 µg/m3
2021-12-29 17:00 3.96 µg/m3 -0.07 µg/m3 12.03 µg/m3 5.75 µg/m3 0.17 mg/m3 16.86 °C 80.84 % 1,010.40 mbar 6.61 m/s 260.29 Deg 0.59 µg/m3
2021-12-29 16:00 4.7 µg/m3 -0.04 µg/m3 12.13 µg/m3 5.73 µg/m3 0.16 mg/m3 17.06 °C 78.64 % 1,009.92 mbar 7.82 m/s 257.06 Deg 0.49 µg/m3
2021-12-29 15:00 6.4 µg/m3 -0.04 µg/m3 12.52 µg/m3 6 µg/m3 0.15 mg/m3 17.08 °C 78.08 % 1,010.20 mbar 6.85 m/s 268.09 Deg 0.91 µg/m3
2021-12-29 14:00 6.14 µg/m3 -0.04 µg/m3 12.51 µg/m3 6.04 µg/m3 0.16 mg/m3 17 °C 79.14 % 1,010.48 mbar 6.33 m/s 257.48 Deg 0.96 µg/m3
2021-12-29 13:00 3.87 µg/m3 -0.06 µg/m3 11.58 µg/m3 5.42 µg/m3 0.16 mg/m3 16.98 °C 79.04 % 1,010.94 mbar 7.76 m/s 261.06 Deg 1.14 µg/m3
2021-12-29 12:00 4.61 µg/m3 -0.03 µg/m3 11.19 µg/m3 5.14 µg/m3 0.17 mg/m3 16.66 °C 79.98 % 1,011.62 mbar 7.42 m/s 264.15 Deg 0.94 µg/m3
2021-12-29 11:00 7.66 µg/m3 -0.03 µg/m3 11.28 µg/m3 5.17 µg/m3 0.17 mg/m3 16.49 °C 80.18 % 1,012.18 mbar 7.14 m/s 253.07 Deg 2.88 µg/m3
2021-12-29 10:00 5.49 µg/m3 -0.04 µg/m3 11.72 µg/m3 5.5 µg/m3 0.17 mg/m3 16.42 °C 81.31 % 1,012.32 mbar 6.14 m/s 264.51 Deg 1.27 µg/m3
2021-12-29 09:00 5.75 µg/m3 -0 µg/m3 11.6 µg/m3 5.41 µg/m3 0.17 mg/m3 16.2 °C 83.78 % 1,011.79 mbar 6.09 m/s 254.42 Deg 0.97 µg/m3
2021-12-29 08:00 7.39 µg/m3 0.04 µg/m3 11.35 µg/m3 5.26 µg/m3 0.17 mg/m3 16.07 °C 84.51 % 1,011.48 mbar 5.33 m/s 263.93 Deg 0.66 µg/m3
2021-12-29 07:00 3.84 µg/m3 -0.04 µg/m3 10.9 µg/m3 4.89 µg/m3 0.17 mg/m3 15.97 °C 83.27 % 1,011.26 mbar 5.07 m/s 261.73 Deg 0.24 µg/m3
2021-12-29 06:00 5.22 µg/m3 -0.03 µg/m3 10.92 µg/m3 4.89 µg/m3 0.15 mg/m3 15.81 °C 82.48 % 1,011.13 mbar 4.42 m/s 265.11 Deg 1.34 µg/m3
2021-12-29 05:00 3.72 µg/m3 -0.05 µg/m3 11.87 µg/m3 5.49 µg/m3 0.18 mg/m3 15.77 °C 82.59 % 1,011.24 mbar 3.05 m/s 272.7 Deg 0.14 µg/m3
2021-12-29 04:00 2.11 µg/m3 -0.05 µg/m3 12.6 µg/m3 6 µg/m3 0.46 mg/m3 15.78 °C 83.54 % 1,011.35 mbar 3.39 m/s 275.68 Deg 0.04 µg/m3
2021-12-29 03:00 6.8 µg/m3 -0.03 µg/m3 12.77 µg/m3 6.15 µg/m3 0.47 mg/m3 15.71 °C 83.09 % 1,011.57 mbar 3.38 m/s 268.95 Deg 0.03 µg/m3
2021-12-29 02:00 0.49 µg/m3 -0.05 µg/m3 11.98 µg/m3 5.61 µg/m3 0.46 mg/m3 15.69 °C 83.81 % 1,011.42 mbar 3.97 m/s 268.97 Deg 0.25 µg/m3
2021-12-29 01:00 0.4 µg/m3 -0.05 µg/m3 11.46 µg/m3 5.27 µg/m3 0.45 mg/m3 15.67 °C 82.08 % 1,011.46 mbar 4.17 m/s 263.63 Deg 0.12 µg/m3
2021-12-29 00:00 1.82 µg/m3 -0.03 µg/m3 12.15 µg/m3 5.78 µg/m3 0.45 mg/m3 15.76 °C 84.01 % 1,011.66 mbar 4.05 m/s 258.73 Deg 0.78 µg/m3
2021-12-28 23:00 0.33 µg/m3 -0.05 µg/m3 11.35 µg/m3 5.29 µg/m3 0.44 mg/m3 15.91 °C 83.69 % 1,011.58 mbar 6.05 m/s 267.81 Deg -0.07 µg/m3
2021-12-28 22:00 1.25 µg/m3 -0.03 µg/m3 11.57 µg/m3 5.39 µg/m3 0.43 mg/m3 15.86 °C 83.37 % 1,011.62 mbar 4.72 m/s 256.72 Deg -0.07 µg/m3
2021-12-28 21:00 5.01 µg/m3 -0.04 µg/m3 11.89 µg/m3 5.61 µg/m3 0.42 mg/m3 15.95 °C 82.92 % 1,011.42 mbar 5.37 m/s 255.15 Deg 1.42 µg/m3
2021-12-28 20:00 5.23 µg/m3 -0.04 µg/m3 11.53 µg/m3 5.42 µg/m3 0.42 mg/m3 16.12 °C 82.83 % 1,011.12 mbar 6.41 m/s 258.35 Deg 0.28 µg/m3
2021-12-28 19:00 5.22 µg/m3 -0.04 µg/m3 10.99 µg/m3 5.01 µg/m3 0.41 mg/m3 16.16 °C 80.66 % 1,010.87 mbar 6.49 m/s 260.83 Deg 0.41 µg/m3
2021-12-28 18:00 7.33 µg/m3 -0.04 µg/m3 11.15 µg/m3 5.12 µg/m3 0.39 mg/m3 16.14 °C 81.49 % 1,010.62 mbar 6.13 m/s 260.67 Deg 0.89 µg/m3
2021-12-28 17:00 6.3 µg/m3 0.01 µg/m3 11.21 µg/m3 5.12 µg/m3 0.38 mg/m3 16.46 °C 79.67 % 1,010.32 mbar 6.72 m/s 260.99 Deg 1.36 µg/m3
2021-12-28 16:00 3.14 µg/m3 -0.01 µg/m3 11.16 µg/m3 4.92 µg/m3 0.37 mg/m3 16.95 °C 76.97 % 1,009.85 mbar 7.27 m/s 258.07 Deg 0.62 µg/m3
2021-12-28 15:00 3.4 µg/m3 0 µg/m3 10.11 µg/m3 4.18 µg/m3 0.33 mg/m3 16.98 °C 73.56 % 1,009.24 mbar 8.13 m/s 268.03 Deg 1.26 µg/m3
2021-12-28 14:00 7.21 µg/m3 0.01 µg/m3 10.6 µg/m3 4.25 µg/m3 0.31 mg/m3 16.95 °C 72.03 % 1,009.63 mbar 8.14 m/s 257.01 Deg 0.85 µg/m3
2021-12-28 13:00 0.3 µg/m3 -0.03 µg/m3 10.63 µg/m3 4.45 µg/m3 0.09 mg/m3 16.96 °C 72.86 % 1,010.15 mbar 7.24 m/s 264.23 Deg 0.46 µg/m3
2021-12-28 12:00 4.34 µg/m3 -0.01 µg/m3 10.47 µg/m3 4.53 µg/m3 0.17 mg/m3 16.84 °C 74.57 % 1,010.50 mbar 7.35 m/s 262.15 Deg 2.25 µg/m3
2021-12-28 11:00 4.32 µg/m3 0.02 µg/m3 10.69 µg/m3 4.6 µg/m3 0.17 mg/m3 16.73 °C 76.55 % 1,011.05 mbar 8.04 m/s 261.86 Deg 1.43 µg/m3
2021-12-28 10:00 5.47 µg/m3 0.03 µg/m3 10.93 µg/m3 4.88 µg/m3 0.18 mg/m3 16.64 °C 77.56 % 1,011.04 mbar 6.26 m/s 261.66 Deg 1.63 µg/m3
2021-12-28 09:00 7.44 µg/m3 0.03 µg/m3 11.13 µg/m3 5.03 µg/m3 0.18 mg/m3 16.26 °C 79.85 % 1,010.55 mbar 5.81 m/s 242.48 Deg 1.94 µg/m3
2021-12-28 08:00 8.41 µg/m3 0.09 µg/m3 10.8 µg/m3 4.87 µg/m3 0.18 mg/m3 16.14 °C 81.63 % 1,009.91 mbar 6.17 m/s 228.31 Deg 4.5 µg/m3
2021-12-28 07:00 7.08 µg/m3 0.15 µg/m3 10.27 µg/m3 4.45 µg/m3 0.18 mg/m3 16.41 °C 79.32 % 1,009.66 mbar 5.83 m/s 259.41 Deg 3.2 µg/m3
2021-12-28 06:00 4.44 µg/m3 0.25 µg/m3 10.69 µg/m3 4.74 µg/m3 0.17 mg/m3 16.58 °C 80.56 % 1,009.39 mbar 5.07 m/s 234.88 Deg 0.25 µg/m3
2021-12-28 05:00 11.27 µg/m3 0.74 µg/m3 12.63 µg/m3 6.06 µg/m3 0.19 mg/m3 16.81 °C 79.77 % 1,009.28 mbar 6.66 m/s 211.13 Deg 2.07 µg/m3
2021-12-28 04:00 10.71 µg/m3 0.88 µg/m3 12.89 µg/m3 6.22 µg/m3 0.15 mg/m3 16.59 °C 80.29 % 1,009.67 mbar 6.91 m/s 207.73 Deg 0.58 µg/m3
2021-12-28 03:00 37.11 µg/m3 0.45 µg/m3 15.51 µg/m3 7.96 µg/m3 0.22 mg/m3 16.36 °C 84.15 % 1,009.37 mbar 7.02 m/s 197.13 Deg 30.4 µg/m3
2021-12-28 02:00 38.77 µg/m3 0.39 µg/m3 15.18 µg/m3 7.82 µg/m3 0.25 mg/m3 16.14 °C 88.49 % 1,010.15 mbar 6.61 m/s 195.93 Deg 45.2 µg/m3
2021-12-28 01:00 15.01 µg/m3 -0.02 µg/m3 14.21 µg/m3 7.11 µg/m3 0.25 mg/m3 15.98 °C 87.04 % 1,011.02 mbar 6.04 m/s 199.33 Deg 1.18 µg/m3
2021-12-28 00:00 11.42 µg/m3 0.01 µg/m3 11.98 µg/m3 5.67 µg/m3 0.24 mg/m3 16.34 °C 84.25 % 1,011.67 mbar 6.35 m/s 202.27 Deg 0.65 µg/m3
2021-12-27 23:00 21.66 µg/m3 0.03 µg/m3 12.31 µg/m3 5.94 µg/m3 0.26 mg/m3 16.19 °C 87.3 % 1,012.02 mbar 5.91 m/s 205.25 Deg 2.8 µg/m3
2021-12-27 22:00 19.04 µg/m3 0.02 µg/m3 15.03 µg/m3 7.42 µg/m3 0.26 mg/m3 16.06 °C 88.22 % 1,012.04 mbar 4.32 m/s 200.65 Deg 1.25 µg/m3
2021-12-27 21:00 30.35 µg/m3 0.05 µg/m3 18.52 µg/m3 9.21 µg/m3 0.28 mg/m3 15.99 °C 87.83 % 1,012.16 mbar 4.25 m/s 204.11 Deg 2.23 µg/m3
2021-12-27 20:00 22.91 µg/m3 0.06 µg/m3 14.97 µg/m3 7.49 µg/m3 0.29 mg/m3 16.07 °C 84.38 % 1,012.22 mbar 3.77 m/s 206.39 Deg 1.47 µg/m3
2021-12-27 19:00 23.75 µg/m3 0.07 µg/m3 13.31 µg/m3 6.38 µg/m3 0.28 mg/m3 16.04 °C 82.55 % 1,012.06 mbar 3.02 m/s 218.78 Deg 4.53 µg/m3
2021-12-27 18:00 15.15 µg/m3 0.05 µg/m3 12.16 µg/m3 5.57 µg/m3 0.27 mg/m3 16.15 °C 81.6 % 1,011.98 mbar 3.08 m/s 245.25 Deg 1.69 µg/m3
2021-12-27 17:00 9.29 µg/m3 0.03 µg/m3 11.79 µg/m3 5.32 µg/m3 0.25 mg/m3 16.38 °C 81 % 1,011.70 mbar 3.93 m/s 262.53 Deg 1.23 µg/m3
2021-12-27 16:00 5.82 µg/m3 0.05 µg/m3 11.36 µg/m3 4.71 µg/m3 0.21 mg/m3 16.89 °C 77.38 % 1,011.54 mbar 4.75 m/s 262 Deg 0.88 µg/m3
2021-12-27 15:00 8.18 µg/m3 0.06 µg/m3 11.02 µg/m3 4.76 µg/m3 0.22 mg/m3 17.01 °C 75.94 % 1,011.25 mbar 4.26 m/s 250.68 Deg 1.77 µg/m3
2021-12-27 14:00 8.93 µg/m3 0.05 µg/m3 12.39 µg/m3 5.13 µg/m3 0.23 mg/m3 17.08 °C 75.24 % 1,011.31 mbar 3.11 m/s 284.58 Deg 1.64 µg/m3
2021-12-27 13:00 10.71 µg/m3 0.07 µg/m3 13.44 µg/m3 5.49 µg/m3 0.23 mg/m3 17.29 °C 75.28 % 1,011.60 mbar 1.77 m/s 315.75 Deg 2.53 µg/m3
2021-12-27 12:00 9.72 µg/m3 0.08 µg/m3 15.16 µg/m3 5.82 µg/m3 0.23 mg/m3 17.44 °C 73.78 % 1,011.99 mbar 1.59 m/s 231.83 Deg 2.69 µg/m3
2021-12-27 11:00 15.66 µg/m3 0.14 µg/m3 14.38 µg/m3 5.78 µg/m3 0.22 mg/m3 17.43 °C 71.55 % 1,012.16 mbar 2.3 m/s 298.08 Deg 4.9 µg/m3
2021-12-27 10:00 23 µg/m3 0.18 µg/m3 14.04 µg/m3 5.89 µg/m3 0.26 mg/m3 16.82 °C 71.25 % 1,011.84 mbar 2.46 m/s 272.3 Deg 6.25 µg/m3
2021-12-27 09:00 44.21 µg/m3 0.26 µg/m3 14.69 µg/m3 6.48 µg/m3 0.35 mg/m3 15.46 °C 85.81 % 1,011.41 mbar 1.72 m/s 216.15 Deg 14.42 µg/m3
2021-12-27 08:00 52.74 µg/m3 0.26 µg/m3 14.4 µg/m3 6.27 µg/m3 0.32 mg/m3 15.48 °C 84.06 % 1,011.08 mbar 1.16 m/s 224.31 Deg 12.58 µg/m3
2021-12-27 07:00 69.52 µg/m3 0.69 µg/m3 16.99 µg/m3 7.82 µg/m3 0.38 mg/m3 15.56 °C 85.65 % 1,010.60 mbar 1.84 m/s 218.72 Deg 58.33 µg/m3
2021-12-27 06:00 56.6 µg/m3 0.26 µg/m3 15.88 µg/m3 7.04 µg/m3 0.28 mg/m3 15.83 °C 84.88 % 1,009.81 mbar 0.49 m/s 291.13 Deg 17.19 µg/m3
2021-12-27 05:00 50.75 µg/m3 0.14 µg/m3 15.71 µg/m3 6.98 µg/m3 0.22 mg/m3 16.08 °C 83.49 % 1,009.81 mbar 0.56 m/s 105.8 Deg 11.24 µg/m3
2021-12-27 04:00 24.49 µg/m3 0.04 µg/m3 13.27 µg/m3 5.76 µg/m3 0.15 mg/m3 16.13 °C 85.42 % 1,009.93 mbar 1.66 m/s 207.23 Deg 1.26 µg/m3
2021-12-27 03:00 28.4 µg/m3 0.08 µg/m3 12.74 µg/m3 5.48 µg/m3 0.14 mg/m3 16.47 °C 85.07 % 1,010.42 mbar 2.43 m/s 185.19 Deg 2.34 µg/m3
2021-12-27 02:00 18.06 µg/m3 0.04 µg/m3 12.81 µg/m3 5.52 µg/m3 0.14 mg/m3 16.86 °C 82.57 % 1,010.69 mbar 2.77 m/s 192.88 Deg 2.47 µg/m3
2021-12-27 01:00 25.85 µg/m3 0.08 µg/m3 12.68 µg/m3 5.57 µg/m3 0.15 mg/m3 16.71 °C 85.9 % 1,011.32 mbar 3.02 m/s 191.33 Deg 1.14 µg/m3
2021-12-27 00:00 19.16 µg/m3 0.11 µg/m3 12.46 µg/m3 5.48 µg/m3 0.16 mg/m3 16.74 °C 86.14 % 1,011.67 mbar 3.19 m/s 187.83 Deg 2.89 µg/m3
2021-12-26 23:00 14.01 µg/m3 0.13 µg/m3 12.19 µg/m3 5.2 µg/m3 0.14 mg/m3 16.81 °C 82.13 % 1,011.84 mbar 3.48 m/s 190.49 Deg 1.73 µg/m3
2021-12-26 22:00 20.87 µg/m3 0.13 µg/m3 12.42 µg/m3 5.32 µg/m3 0.15 mg/m3 16.7 °C 80.97 % 1,011.83 mbar 3.65 m/s 190.22 Deg 1.7 µg/m3
2021-12-26 21:00 36.14 µg/m3 0.32 µg/m3 12.35 µg/m3 5.47 µg/m3 0.17 mg/m3 16.54 °C 84.88 % 1,011.94 mbar 2.59 m/s 186.22 Deg 22.93 µg/m3
2021-12-26 20:00 29.6 µg/m3 0 µg/m3 11.99 µg/m3 5.27 µg/m3 0 mg/m3 16.52 °C 85.26 % 1,012.03 mbar 2.88 m/s 184.7 Deg 9.96 µg/m3
2021-12-26 19:00 31.32 µg/m3 0 µg/m3 12.77 µg/m3 5.66 µg/m3 0 mg/m3 16.8 °C 83.04 % 1,011.78 mbar 2.11 m/s 183.71 Deg 7.73 µg/m3
2021-12-26 18:00 29.93 µg/m3 0 µg/m3 14.34 µg/m3 6.49 µg/m3 0 mg/m3 17.27 °C 76.87 % 1,011.44 mbar 2.32 m/s 187.37 Deg 5.55 µg/m3
2021-12-26 17:00 23.88 µg/m3 0 µg/m3 14.36 µg/m3 5.91 µg/m3 0 mg/m3 17.67 °C 72.33 % 1,011.07 mbar 3.25 m/s 193.49 Deg 3.1 µg/m3
2021-12-26 16:00 28.41 µg/m3 0 µg/m3 12.92 µg/m3 5.16 µg/m3 0 mg/m3 18.11 °C 68.37 % 1,011.11 mbar 5.13 m/s 195.7 Deg 6.19 µg/m3
2021-12-26 15:00 18.95 µg/m3 0 µg/m3 12.95 µg/m3 5.34 µg/m3 0 mg/m3 18.43 °C 65.68 % 1,011.39 mbar 6.28 m/s 198.86 Deg 5.77 µg/m3
2021-12-26 14:00 28.68 µg/m3 0 µg/m3 14.68 µg/m3 6.4 µg/m3 0 mg/m3 18.73 °C 64.4 % 1,011.63 mbar 6.1 m/s 193.13 Deg 11.05 µg/m3
2021-12-26 13:00 19.65 µg/m3 0 µg/m3 15.52 µg/m3 6.54 µg/m3 0 mg/m3 19 °C 61.14 % 1,012.10 mbar 5.22 m/s 195.66 Deg 5.89 µg/m3
2021-12-26 12:00 30.19 µg/m3 0 µg/m3 17.19 µg/m3 6.93 µg/m3 0 mg/m3 19.18 °C 57.93 % 1,012.79 mbar 3.21 m/s 200 Deg 14.44 µg/m3
2021-12-26 11:00 14.22 µg/m3 0 µg/m3 16.52 µg/m3 6.71 µg/m3 0 mg/m3 18.49 °C 60.03 % 1,013.45 mbar 2.63 m/s 186.48 Deg 4 µg/m3
2021-12-26 10:00 19.56 µg/m3 0.23 µg/m3 20.4 µg/m3 8.58 µg/m3 0.24 mg/m3 17.4 °C 70.4 % 1,013.62 mbar 2.68 m/s 183.18 Deg 4.77 µg/m3
2021-12-26 09:00 22.62 µg/m3 0 µg/m3 17.02 µg/m3 7.76 µg/m3 0 mg/m3 16.89 °C 73.91 % 1,013.21 mbar 2.42 m/s 181.59 Deg 4.43 µg/m3
2021-12-26 08:00 20.18 µg/m3 0 µg/m3 15.49 µg/m3 6.97 µg/m3 0 mg/m3 16.33 °C 79.89 % 1,012.95 mbar 2.26 m/s 179.62 Deg 4.25 µg/m3
2021-12-26 07:00 25.28 µg/m3 0 µg/m3 14.71 µg/m3 6.6 µg/m3 0 mg/m3 16.52 °C 79.43 % 1,012.79 mbar 2.44 m/s 186.99 Deg 8.79 µg/m3
2021-12-26 06:00 16.52 µg/m3 0 µg/m3 14.58 µg/m3 6.36 µg/m3 0 mg/m3 16.93 °C 76.14 % 1,012.65 mbar 2.65 m/s 190.53 Deg 0.67 µg/m3
2021-12-26 05:00 11.09 µg/m3 0 µg/m3 13.57 µg/m3 5.97 µg/m3 0 mg/m3 17.04 °C 77.58 % 1,012.20 mbar 4.47 m/s 194.84 Deg 0.28 µg/m3
2021-12-26 04:00 11.88 µg/m3 0 µg/m3 13.77 µg/m3 6.04 µg/m3 0 mg/m3 16.93 °C 79.17 % 1,012.28 mbar 3.47 m/s 190.85 Deg 2.58 µg/m3
2021-12-26 03:00 7.87 µg/m3 0 µg/m3 14.15 µg/m3 6.14 µg/m3 0 mg/m3 16.92 °C 79.43 % 1,012.66 mbar 3.4 m/s 189.9 Deg 0.37 µg/m3
2021-12-26 02:00 1.96 µg/m3 0.19 µg/m3 13.46 µg/m3 5.91 µg/m3 0.18 mg/m3 16.81 °C 78.89 % 1,012.60 mbar 4.29 m/s 188.06 Deg 0.35 µg/m3
2021-12-26 01:00 9.43 µg/m3 0.21 µg/m3 12.84 µg/m3 5.77 µg/m3 0.19 mg/m3 16.56 °C 81.12 % 1,012.86 mbar 3.46 m/s 187.04 Deg 1.95 µg/m3
2021-12-26 00:00 8.77 µg/m3 0.16 µg/m3 12.98 µg/m3 5.93 µg/m3 0.18 mg/m3 16.57 °C 78.52 % 1,013.10 mbar 4.01 m/s 187.1 Deg 2.18 µg/m3
2021-12-25 23:00 6.72 µg/m3 0.17 µg/m3 12.99 µg/m3 6.03 µg/m3 0.16 mg/m3 16.56 °C 79.98 % 1,013.27 mbar 4.66 m/s 188.31 Deg 1.33 µg/m3
2021-12-25 22:00 11.27 µg/m3 0 µg/m3 14.19 µg/m3 6.65 µg/m3 0 mg/m3 16.43 °C 82.45 % 1,013.68 mbar 3.49 m/s 185.43 Deg 1.92 µg/m3
2021-12-25 21:00 12.56 µg/m3 0 µg/m3 14.76 µg/m3 6.95 µg/m3 0 mg/m3 16.5 °C 81.48 % 1,013.78 mbar 3.74 m/s 185.03 Deg 2.45 µg/m3
2021-12-25 20:00 24.84 µg/m3 0 µg/m3 15.64 µg/m3 7.56 µg/m3 0 mg/m3 16.52 °C 81.19 % 1,013.72 mbar 3.12 m/s 183.75 Deg 5.69 µg/m3
2021-12-25 19:00 32.54 µg/m3 0.55 µg/m3 16.47 µg/m3 8.13 µg/m3 0.21 mg/m3 16.62 °C 80.97 % 1,013.91 mbar 2.61 m/s 186.93 Deg 14.05 µg/m3
2021-12-25 18:00 25.2 µg/m3 0 µg/m3 16.98 µg/m3 8.56 µg/m3 0.21 mg/m3 16.99 °C 79.73 % 1,013.78 mbar 3.43 m/s 184.08 Deg 8.77 µg/m3
2021-12-25 17:00 22.99 µg/m3 0 µg/m3 16.57 µg/m3 8.13 µg/m3 0 mg/m3 17.44 °C 76.61 % 1,013.61 mbar 4.24 m/s 182.18 Deg 6.67 µg/m3
2021-12-25 16:00 17.72 µg/m3 0 µg/m3 16.85 µg/m3 8.42 µg/m3 0 mg/m3 17.89 °C 75.68 % 1,013.76 mbar 4.69 m/s 183.1 Deg 6.6 µg/m3
2021-12-25 15:00 15.72 µg/m3 0 µg/m3 16 µg/m3 7.72 µg/m3 0 mg/m3 18.33 °C 73.18 % 1,013.89 mbar 5.32 m/s 181.63 Deg 5.52 µg/m3
2021-12-25 14:00 11.14 µg/m3 0.19 µg/m3 15.37 µg/m3 7.05 µg/m3 0.21 mg/m3 18.33 °C 74 % 1,014.38 mbar 4.78 m/s 191.86 Deg 3.83 µg/m3
2021-12-25 13:00 14.14 µg/m3 0.16 µg/m3 15.32 µg/m3 7.28 µg/m3 0.23 mg/m3 18.21 °C 75.27 % 1,015.08 mbar 4.85 m/s 184.99 Deg 3.93 µg/m3
2021-12-25 12:00 28.99 µg/m3 0.3 µg/m3 15.82 µg/m3 7.84 µg/m3 0.24 mg/m3 18.08 °C 77.63 % 1,015.75 mbar 4.75 m/s 174.58 Deg 12.38 µg/m3
2021-12-25 11:00 31.78 µg/m3 0.38 µg/m3 16.71 µg/m3 8.63 µg/m3 0.27 mg/m3 17.74 °C 80.17 % 1,016.46 mbar 4.47 m/s 178.65 Deg 14.58 µg/m3
2021-12-25 10:00 32.46 µg/m3 0.33 µg/m3 15.76 µg/m3 8.16 µg/m3 0.25 mg/m3 17.16 °C 84.19 % 1,017.07 mbar 3.62 m/s 178.71 Deg 15.18 µg/m3
2021-12-25 09:00 29.55 µg/m3 0.25 µg/m3 14.3 µg/m3 7.16 µg/m3 0.23 mg/m3 16.38 °C 86.62 % 1,017.24 mbar 3.4 m/s 181.63 Deg 11.89 µg/m3
2021-12-25 08:00 33.71 µg/m3 0.25 µg/m3 14.77 µg/m3 7.44 µg/m3 0.22 mg/m3 15.79 °C 87.28 % 1,017.11 mbar 2.8 m/s 182.08 Deg 11.74 µg/m3
2021-12-25 07:00 33.57 µg/m3 0.19 µg/m3 14.41 µg/m3 7.22 µg/m3 0.22 mg/m3 15.93 °C 85.63 % 1,016.89 mbar 2.94 m/s 182.66 Deg 8.52 µg/m3
2021-12-25 06:00 30.06 µg/m3 0.22 µg/m3 13.24 µg/m3 6.43 µg/m3 0.2 mg/m3 15.98 °C 84.16 % 1,016.71 mbar 3.61 m/s 183.01 Deg 9.77 µg/m3
2021-12-25 05:00 13.4 µg/m3 0.21 µg/m3 11.9 µg/m3 5.55 µg/m3 0.18 mg/m3 15.78 °C 84.42 % 1,016.67 mbar 4.08 m/s 181.64 Deg 2.62 µg/m3
2021-12-25 04:00 22.51 µg/m3 0.39 µg/m3 10.66 µg/m3 4.67 µg/m3 0.16 mg/m3 15.5 °C 84.89 % 1,016.96 mbar 3.55 m/s 180.99 Deg 4.65 µg/m3
2021-12-25 03:00 44.41 µg/m3 0.59 µg/m3 11.19 µg/m3 5.02 µg/m3 0.25 mg/m3 15.07 °C 84.13 % 1,017.27 mbar 2.52 m/s 181.56 Deg 10.39 µg/m3
2021-12-25 02:00 60.1 µg/m3 0.51 µg/m3 12.13 µg/m3 5.82 µg/m3 0.31 mg/m3 14.51 °C 85.91 % 1,017.55 mbar 1.65 m/s 173.78 Deg 16.87 µg/m3
2021-12-25 01:00 57.75 µg/m3 0 µg/m3 13.76 µg/m3 7.02 µg/m3 0 mg/m3 14.26 °C 85.5 % 1,018.08 mbar 1.44 m/s 176.58 Deg 18.99 µg/m3
2021-12-25 00:00 55.37 µg/m3 0 µg/m3 17.71 µg/m3 9.96 µg/m3 0 mg/m3 13.28 °C 89.43 % 1,018.56 mbar 1.5 m/s 189.78 Deg 37.47 µg/m3
2021-12-24 23:00 56.78 µg/m3 1.01 µg/m3 27.14 µg/m3 16.76 µg/m3 0.77 mg/m3 12.47 °C 90.19 % 1,018.83 mbar 1.74 m/s 202.91 Deg 74.9 µg/m3
2021-12-24 22:00 68.73 µg/m3 0 µg/m3 23.03 µg/m3 13.66 µg/m3 0 mg/m3 12.99 °C 89.47 % 1,018.91 mbar 1.15 m/s 198.53 Deg 65.9 µg/m3
2021-12-24 21:00 76.98 µg/m3 0 µg/m3 22.44 µg/m3 13.1 µg/m3 0 mg/m3 13.65 °C 86.97 % 1,019.05 mbar 0.78 m/s 210.33 Deg 44.33 µg/m3
2021-12-24 20:00 73.13 µg/m3 0.57 µg/m3 21.04 µg/m3 11.68 µg/m3 0.69 mg/m3 13.94 °C 84.52 % 1,019.41 mbar 0.88 m/s 201.64 Deg 23.47 µg/m3

It is to be noted that the data is provisional and subject to quality assurance procedures. For validated data kindly refer your request to contact.air@era.org.mt